<?xml version="1.0" encoding="utf-8"?>
<gpx xmlns:xsi="http://www.w3.org/2001/XMLSchema-instance" xmlns:xsd="http://www.w3.org/2001/XMLSchema" version="1.1" creator="Shapelink.com" xmlns="http://www.topografix.com/GPX/1/1" xmlns:gpxtpx="http://www.garmin.com/xmlschemas/TrackPointExtension/v1">
  <metadata>
    <name>Ejecutar 9.26 km, 2020-03-27</name>
    <desc></desc>
    <author><name>Björn Hagström</name></author> 
    <time>1970-01-01T01:00:00Z</time>
  </metadata>
  <trk>
    <name>Ejecutar 9.26 km, 2020-03-27</name>
    <trkseg>
      <trkpt lat="57.484459" lon="15.550021">
        <ele>218.429</ele>
        <time>1970-01-01T01:00:00Z</time>
      </trkpt>
      <trkpt lat="57.484363" lon="15.550095">
        <ele>218.5</ele>
        <time>1970-01-01T01:00:00Z</time>
      </trkpt>
      <trkpt lat="57.484291" lon="15.55017">
        <ele>218.556</ele>
        <time>1970-01-01T01:00:00Z</time>
      </trkpt>
      <trkpt lat="57.484206" lon="15.550213">
        <ele>218.5</ele>
        <time>1970-01-01T01:00:00Z</time>
      </trkpt>
      <trkpt lat="57.484138" lon="15.550314">
        <ele>218.364</ele>
        <time>1970-01-01T01:00:00Z</time>
      </trkpt>
      <trkpt lat="57.484041" lon="15.550371">
        <ele>218.182</ele>
        <time>1970-01-01T01:00:00Z</time>
      </trkpt>
      <trkpt lat="57.48394" lon="15.550383">
        <ele>218</ele>
        <time>1970-01-01T01:00:00Z</time>
      </trkpt>
      <trkpt lat="57.483854" lon="15.550396">
        <ele>217.727</ele>
        <time>1970-01-01T01:00:00Z</time>
      </trkpt>
      <trkpt lat="57.483756" lon="15.550325">
        <ele>217.455</ele>
        <time>1970-01-01T01:00:00Z</time>
      </trkpt>
      <trkpt lat="57.483681" lon="15.550195">
        <ele>217</ele>
        <time>1970-01-01T01:00:00Z</time>
      </trkpt>
      <trkpt lat="57.483624" lon="15.550069">
        <ele>216.545</ele>
        <time>1970-01-01T01:00:00Z</time>
      </trkpt>
      <trkpt lat="57.483577" lon="15.549945">
        <ele>216.091</ele>
        <time>1970-01-01T01:00:00Z</time>
      </trkpt>
      <trkpt lat="57.483524" lon="15.54977">
        <ele>215.545</ele>
        <time>1970-01-01T01:00:00Z</time>
      </trkpt>
      <trkpt lat="57.483497" lon="15.549612">
        <ele>215</ele>
        <time>1970-01-01T01:00:00Z</time>
      </trkpt>
      <trkpt lat="57.483431" lon="15.54946">
        <ele>214.545</ele>
        <time>1970-01-01T01:00:00Z</time>
      </trkpt>
      <trkpt lat="57.483325" lon="15.5494">
        <ele>214.182</ele>
        <time>1970-01-01T01:00:00Z</time>
      </trkpt>
      <trkpt lat="57.483236" lon="15.549375">
        <ele>213.909</ele>
        <time>1970-01-01T01:00:00Z</time>
      </trkpt>
      <trkpt lat="57.483139" lon="15.549368">
        <ele>213.636</ele>
        <time>1970-01-01T01:00:00Z</time>
      </trkpt>
      <trkpt lat="57.483043" lon="15.549371">
        <ele>213.545</ele>
        <time>1970-01-01T01:00:00Z</time>
      </trkpt>
      <trkpt lat="57.482952" lon="15.54934">
        <ele>213.545</ele>
        <time>1970-01-01T01:00:00Z</time>
      </trkpt>
      <trkpt lat="57.482867" lon="15.549398">
        <ele>213.636</ele>
        <time>1970-01-01T01:00:00Z</time>
      </trkpt>
      <trkpt lat="57.482788" lon="15.549485">
        <ele>213.727</ele>
        <time>1970-01-01T01:00:00Z</time>
      </trkpt>
      <trkpt lat="57.482717" lon="15.549574">
        <ele>213.909</ele>
        <time>1970-01-01T01:00:00Z</time>
      </trkpt>
      <trkpt lat="57.482616" lon="15.549641">
        <ele>214.182</ele>
        <time>1970-01-01T01:00:00Z</time>
      </trkpt>
      <trkpt lat="57.482533" lon="15.549702">
        <ele>214.455</ele>
        <time>1970-01-01T01:00:00Z</time>
      </trkpt>
      <trkpt lat="57.48245" lon="15.549756">
        <ele>214.727</ele>
        <time>1970-01-01T01:00:00Z</time>
      </trkpt>
      <trkpt lat="57.482375" lon="15.549818">
        <ele>215</ele>
        <time>1970-01-01T01:00:00Z</time>
      </trkpt>
      <trkpt lat="57.482298" lon="15.5499">
        <ele>215.273</ele>
        <time>1970-01-01T01:00:00Z</time>
      </trkpt>
      <trkpt lat="57.482213" lon="15.549993">
        <ele>215.545</ele>
        <time>1970-01-01T01:00:00Z</time>
      </trkpt>
      <trkpt lat="57.482109" lon="15.550112">
        <ele>215.818</ele>
        <time>1970-01-01T01:00:00Z</time>
      </trkpt>
      <trkpt lat="57.482033" lon="15.550202">
        <ele>216</ele>
        <time>1970-01-01T01:00:00Z</time>
      </trkpt>
      <trkpt lat="57.481946" lon="15.550237">
        <ele>216.273</ele>
        <time>1970-01-01T01:00:00Z</time>
      </trkpt>
      <trkpt lat="57.481858" lon="15.550289">
        <ele>216.545</ele>
        <time>1970-01-01T01:00:00Z</time>
      </trkpt>
      <trkpt lat="57.481755" lon="15.550334">
        <ele>216.727</ele>
        <time>1970-01-01T01:00:00Z</time>
      </trkpt>
      <trkpt lat="57.481666" lon="15.550439">
        <ele>216.909</ele>
        <time>1970-01-01T01:00:00Z</time>
      </trkpt>
      <trkpt lat="57.481585" lon="15.550507">
        <ele>217.091</ele>
        <time>1970-01-01T01:00:00Z</time>
      </trkpt>
      <trkpt lat="57.481513" lon="15.550602">
        <ele>217.273</ele>
        <time>1970-01-01T01:00:00Z</time>
      </trkpt>
      <trkpt lat="57.481431" lon="15.550636">
        <ele>217.455</ele>
        <time>1970-01-01T01:00:00Z</time>
      </trkpt>
      <trkpt lat="57.481345" lon="15.550744">
        <ele>217.727</ele>
        <time>1970-01-01T01:00:00Z</time>
      </trkpt>
      <trkpt lat="57.481243" lon="15.550724">
        <ele>217.909</ele>
        <time>1970-01-01T01:00:00Z</time>
      </trkpt>
      <trkpt lat="57.481148" lon="15.550767">
        <ele>218</ele>
        <time>1970-01-01T01:00:00Z</time>
      </trkpt>
      <trkpt lat="57.481072" lon="15.550826">
        <ele>218.091</ele>
        <time>1970-01-01T01:00:00Z</time>
      </trkpt>
      <trkpt lat="57.48098" lon="15.550854">
        <ele>218.091</ele>
        <time>1970-01-01T01:00:00Z</time>
      </trkpt>
      <trkpt lat="57.480894" lon="15.550917">
        <ele>218</ele>
        <time>1970-01-01T01:00:00Z</time>
      </trkpt>
      <trkpt lat="57.480815" lon="15.551014">
        <ele>218</ele>
        <time>1970-01-01T01:00:00Z</time>
      </trkpt>
      <trkpt lat="57.48075" lon="15.551168">
        <ele>218</ele>
        <time>1970-01-01T01:00:00Z</time>
      </trkpt>
      <trkpt lat="57.480688" lon="15.551293">
        <ele>218.091</ele>
        <time>1970-01-01T01:00:00Z</time>
      </trkpt>
      <trkpt lat="57.480621" lon="15.551441">
        <ele>218.182</ele>
        <time>1970-01-01T01:00:00Z</time>
      </trkpt>
      <trkpt lat="57.480567" lon="15.551584">
        <ele>218.273</ele>
        <time>1970-01-01T01:00:00Z</time>
      </trkpt>
      <trkpt lat="57.480485" lon="15.551689">
        <ele>218.364</ele>
        <time>1970-01-01T01:00:00Z</time>
      </trkpt>
      <trkpt lat="57.480404" lon="15.551792">
        <ele>218.545</ele>
        <time>1970-01-01T01:00:00Z</time>
      </trkpt>
      <trkpt lat="57.480336" lon="15.551886">
        <ele>218.727</ele>
        <time>1970-01-01T01:00:00Z</time>
      </trkpt>
      <trkpt lat="57.480265" lon="15.55201">
        <ele>218.818</ele>
        <time>1970-01-01T01:00:00Z</time>
      </trkpt>
      <trkpt lat="57.480171" lon="15.552133">
        <ele>218.909</ele>
        <time>1970-01-01T01:00:00Z</time>
      </trkpt>
      <trkpt lat="57.480092" lon="15.55228">
        <ele>219.091</ele>
        <time>1970-01-01T01:00:00Z</time>
      </trkpt>
      <trkpt lat="57.480043" lon="15.552445">
        <ele>219.182</ele>
        <time>1970-01-01T01:00:00Z</time>
      </trkpt>
      <trkpt lat="57.479976" lon="15.552596">
        <ele>219.273</ele>
        <time>1970-01-01T01:00:00Z</time>
      </trkpt>
      <trkpt lat="57.479912" lon="15.552773">
        <ele>219.273</ele>
        <time>1970-01-01T01:00:00Z</time>
      </trkpt>
      <trkpt lat="57.479841" lon="15.552896">
        <ele>219.182</ele>
        <time>1970-01-01T01:00:00Z</time>
      </trkpt>
      <trkpt lat="57.479764" lon="15.552985">
        <ele>219.091</ele>
        <time>1970-01-01T01:00:00Z</time>
      </trkpt>
      <trkpt lat="57.479709" lon="15.553114">
        <ele>218.909</ele>
        <time>1970-01-01T01:00:00Z</time>
      </trkpt>
      <trkpt lat="57.479636" lon="15.553233">
        <ele>218.636</ele>
        <time>1970-01-01T01:00:00Z</time>
      </trkpt>
      <trkpt lat="57.479595" lon="15.553404">
        <ele>218.364</ele>
        <time>1970-01-01T01:00:00Z</time>
      </trkpt>
      <trkpt lat="57.479517" lon="15.553527">
        <ele>218.091</ele>
        <time>1970-01-01T01:00:00Z</time>
      </trkpt>
      <trkpt lat="57.479443" lon="15.553643">
        <ele>217.727</ele>
        <time>1970-01-01T01:00:00Z</time>
      </trkpt>
      <trkpt lat="57.479395" lon="15.553772">
        <ele>217.364</ele>
        <time>1970-01-01T01:00:00Z</time>
      </trkpt>
      <trkpt lat="57.479343" lon="15.553933">
        <ele>217</ele>
        <time>1970-01-01T01:00:00Z</time>
      </trkpt>
      <trkpt lat="57.479282" lon="15.5541">
        <ele>216.636</ele>
        <time>1970-01-01T01:00:00Z</time>
      </trkpt>
      <trkpt lat="57.479219" lon="15.554237">
        <ele>216.364</ele>
        <time>1970-01-01T01:00:00Z</time>
      </trkpt>
      <trkpt lat="57.479121" lon="15.554323">
        <ele>216.182</ele>
        <time>1970-01-01T01:00:00Z</time>
      </trkpt>
      <trkpt lat="57.479017" lon="15.554386">
        <ele>216</ele>
        <time>1970-01-01T01:00:00Z</time>
      </trkpt>
      <trkpt lat="57.478937" lon="15.55444">
        <ele>215.909</ele>
        <time>1970-01-01T01:00:00Z</time>
      </trkpt>
      <trkpt lat="57.478836" lon="15.554425">
        <ele>216</ele>
        <time>1970-01-01T01:00:00Z</time>
      </trkpt>
      <trkpt lat="57.478746" lon="15.554392">
        <ele>216.091</ele>
        <time>1970-01-01T01:00:00Z</time>
      </trkpt>
      <trkpt lat="57.478665" lon="15.554427">
        <ele>216.273</ele>
        <time>1970-01-01T01:00:00Z</time>
      </trkpt>
      <trkpt lat="57.478577" lon="15.554479">
        <ele>216.545</ele>
        <time>1970-01-01T01:00:00Z</time>
      </trkpt>
      <trkpt lat="57.478493" lon="15.554547">
        <ele>216.727</ele>
        <time>1970-01-01T01:00:00Z</time>
      </trkpt>
      <trkpt lat="57.478402" lon="15.554583">
        <ele>216.909</ele>
        <time>1970-01-01T01:00:00Z</time>
      </trkpt>
      <trkpt lat="57.478323" lon="15.554649">
        <ele>217.091</ele>
        <time>1970-01-01T01:00:00Z</time>
      </trkpt>
      <trkpt lat="57.478223" lon="15.554722">
        <ele>217.182</ele>
        <time>1970-01-01T01:00:00Z</time>
      </trkpt>
      <trkpt lat="57.478131" lon="15.554811">
        <ele>217.273</ele>
        <time>1970-01-01T01:00:00Z</time>
      </trkpt>
      <trkpt lat="57.478051" lon="15.554871">
        <ele>217.364</ele>
        <time>1970-01-01T01:00:00Z</time>
      </trkpt>
      <trkpt lat="57.477956" lon="15.554964">
        <ele>217.364</ele>
        <time>1970-01-01T01:00:00Z</time>
      </trkpt>
      <trkpt lat="57.477865" lon="15.555012">
        <ele>217.364</ele>
        <time>1970-01-01T01:00:00Z</time>
      </trkpt>
      <trkpt lat="57.47776" lon="15.555021">
        <ele>217.455</ele>
        <time>1970-01-01T01:00:00Z</time>
      </trkpt>
      <trkpt lat="57.477658" lon="15.555005">
        <ele>217.545</ele>
        <time>1970-01-01T01:00:00Z</time>
      </trkpt>
      <trkpt lat="57.477565" lon="15.554993">
        <ele>217.727</ele>
        <time>1970-01-01T01:00:00Z</time>
      </trkpt>
      <trkpt lat="57.47746" lon="15.555001">
        <ele>218</ele>
        <time>1970-01-01T01:00:00Z</time>
      </trkpt>
      <trkpt lat="57.47736" lon="15.554969">
        <ele>218.273</ele>
        <time>1970-01-01T01:00:00Z</time>
      </trkpt>
      <trkpt lat="57.477268" lon="15.554948">
        <ele>218.545</ele>
        <time>1970-01-01T01:00:00Z</time>
      </trkpt>
      <trkpt lat="57.477164" lon="15.554962">
        <ele>218.818</ele>
        <time>1970-01-01T01:00:00Z</time>
      </trkpt>
      <trkpt lat="57.477074" lon="15.554984">
        <ele>219.091</ele>
        <time>1970-01-01T01:00:00Z</time>
      </trkpt>
      <trkpt lat="57.476963" lon="15.554983">
        <ele>219.273</ele>
        <time>1970-01-01T01:00:00Z</time>
      </trkpt>
      <trkpt lat="57.476851" lon="15.555012">
        <ele>219.455</ele>
        <time>1970-01-01T01:00:00Z</time>
      </trkpt>
      <trkpt lat="57.47675" lon="15.555027">
        <ele>219.545</ele>
        <time>1970-01-01T01:00:00Z</time>
      </trkpt>
      <trkpt lat="57.476664" lon="15.554994">
        <ele>219.545</ele>
        <time>1970-01-01T01:00:00Z</time>
      </trkpt>
      <trkpt lat="57.476564" lon="15.554959">
        <ele>219.545</ele>
        <time>1970-01-01T01:00:00Z</time>
      </trkpt>
      <trkpt lat="57.476471" lon="15.554944">
        <ele>219.455</ele>
        <time>1970-01-01T01:00:00Z</time>
      </trkpt>
      <trkpt lat="57.476384" lon="15.554912">
        <ele>219.273</ele>
        <time>1970-01-01T01:00:00Z</time>
      </trkpt>
      <trkpt lat="57.4763" lon="15.554852">
        <ele>219</ele>
        <time>1970-01-01T01:00:00Z</time>
      </trkpt>
      <trkpt lat="57.47621" lon="15.554789">
        <ele>218.727</ele>
        <time>1970-01-01T01:00:00Z</time>
      </trkpt>
      <trkpt lat="57.476128" lon="15.554741">
        <ele>218.364</ele>
        <time>1970-01-01T01:00:00Z</time>
      </trkpt>
      <trkpt lat="57.476043" lon="15.554683">
        <ele>217.909</ele>
        <time>1970-01-01T01:00:00Z</time>
      </trkpt>
      <trkpt lat="57.475951" lon="15.554602">
        <ele>217.455</ele>
        <time>1970-01-01T01:00:00Z</time>
      </trkpt>
      <trkpt lat="57.475866" lon="15.554571">
        <ele>216.909</ele>
        <time>1970-01-01T01:00:00Z</time>
      </trkpt>
      <trkpt lat="57.475784" lon="15.554562">
        <ele>216.273</ele>
        <time>1970-01-01T01:00:00Z</time>
      </trkpt>
      <trkpt lat="57.475686" lon="15.55458">
        <ele>215.545</ele>
        <time>1970-01-01T01:00:00Z</time>
      </trkpt>
      <trkpt lat="57.475588" lon="15.554595">
        <ele>214.818</ele>
        <time>1970-01-01T01:00:00Z</time>
      </trkpt>
      <trkpt lat="57.475505" lon="15.554588">
        <ele>214.091</ele>
        <time>1970-01-01T01:00:00Z</time>
      </trkpt>
      <trkpt lat="57.475409" lon="15.554509">
        <ele>213.455</ele>
        <time>1970-01-01T01:00:00Z</time>
      </trkpt>
      <trkpt lat="57.475308" lon="15.554496">
        <ele>212.909</ele>
        <time>1970-01-01T01:00:00Z</time>
      </trkpt>
      <trkpt lat="57.475218" lon="15.554494">
        <ele>212.273</ele>
        <time>1970-01-01T01:00:00Z</time>
      </trkpt>
      <trkpt lat="57.475132" lon="15.554492">
        <ele>211.727</ele>
        <time>1970-01-01T01:00:00Z</time>
      </trkpt>
      <trkpt lat="57.475043" lon="15.554505">
        <ele>211.182</ele>
        <time>1970-01-01T01:00:00Z</time>
      </trkpt>
      <trkpt lat="57.474962" lon="15.554489">
        <ele>210.636</ele>
        <time>1970-01-01T01:00:00Z</time>
      </trkpt>
      <trkpt lat="57.474877" lon="15.554489">
        <ele>210.182</ele>
        <time>1970-01-01T01:00:00Z</time>
      </trkpt>
      <trkpt lat="57.474796" lon="15.554507">
        <ele>209.727</ele>
        <time>1970-01-01T01:00:00Z</time>
      </trkpt>
      <trkpt lat="57.474705" lon="15.554499">
        <ele>209.364</ele>
        <time>1970-01-01T01:00:00Z</time>
      </trkpt>
      <trkpt lat="57.474593" lon="15.554462">
        <ele>209</ele>
        <time>1970-01-01T01:00:00Z</time>
      </trkpt>
      <trkpt lat="57.474487" lon="15.554402">
        <ele>208.727</ele>
        <time>1970-01-01T01:00:00Z</time>
      </trkpt>
      <trkpt lat="57.474377" lon="15.554382">
        <ele>208.455</ele>
        <time>1970-01-01T01:00:00Z</time>
      </trkpt>
      <trkpt lat="57.47429" lon="15.554347">
        <ele>208.182</ele>
        <time>1970-01-01T01:00:00Z</time>
      </trkpt>
      <trkpt lat="57.474201" lon="15.554359">
        <ele>208</ele>
        <time>1970-01-01T01:00:00Z</time>
      </trkpt>
      <trkpt lat="57.474087" lon="15.554411">
        <ele>207.818</ele>
        <time>1970-01-01T01:00:00Z</time>
      </trkpt>
      <trkpt lat="57.473983" lon="15.554396">
        <ele>207.727</ele>
        <time>1970-01-01T01:00:00Z</time>
      </trkpt>
      <trkpt lat="57.47391" lon="15.55448">
        <ele>207.727</ele>
        <time>1970-01-01T01:00:00Z</time>
      </trkpt>
      <trkpt lat="57.47384" lon="15.554557">
        <ele>207.727</ele>
        <time>1970-01-01T01:00:00Z</time>
      </trkpt>
      <trkpt lat="57.473771" lon="15.554659">
        <ele>207.727</ele>
        <time>1970-01-01T01:00:00Z</time>
      </trkpt>
      <trkpt lat="57.473688" lon="15.554742">
        <ele>207.636</ele>
        <time>1970-01-01T01:00:00Z</time>
      </trkpt>
      <trkpt lat="57.473606" lon="15.554849">
        <ele>207.545</ele>
        <time>1970-01-01T01:00:00Z</time>
      </trkpt>
      <trkpt lat="57.473534" lon="15.55492">
        <ele>207.273</ele>
        <time>1970-01-01T01:00:00Z</time>
      </trkpt>
      <trkpt lat="57.47344" lon="15.554999">
        <ele>206.909</ele>
        <time>1970-01-01T01:00:00Z</time>
      </trkpt>
      <trkpt lat="57.473342" lon="15.55505">
        <ele>206.364</ele>
        <time>1970-01-01T01:00:00Z</time>
      </trkpt>
      <trkpt lat="57.473244" lon="15.555159">
        <ele>205.818</ele>
        <time>1970-01-01T01:00:00Z</time>
      </trkpt>
      <trkpt lat="57.473161" lon="15.555186">
        <ele>205.182</ele>
        <time>1970-01-01T01:00:00Z</time>
      </trkpt>
      <trkpt lat="57.473074" lon="15.555287">
        <ele>204.545</ele>
        <time>1970-01-01T01:00:00Z</time>
      </trkpt>
      <trkpt lat="57.473004" lon="15.555424">
        <ele>203.818</ele>
        <time>1970-01-01T01:00:00Z</time>
      </trkpt>
      <trkpt lat="57.47294" lon="15.55554">
        <ele>203.091</ele>
        <time>1970-01-01T01:00:00Z</time>
      </trkpt>
      <trkpt lat="57.472874" lon="15.555669">
        <ele>202.455</ele>
        <time>1970-01-01T01:00:00Z</time>
      </trkpt>
      <trkpt lat="57.472824" lon="15.555802">
        <ele>202</ele>
        <time>1970-01-01T01:00:00Z</time>
      </trkpt>
      <trkpt lat="57.472784" lon="15.555958">
        <ele>201.545</ele>
        <time>1970-01-01T01:00:00Z</time>
      </trkpt>
      <trkpt lat="57.472728" lon="15.55607">
        <ele>201.182</ele>
        <time>1970-01-01T01:00:00Z</time>
      </trkpt>
      <trkpt lat="57.472648" lon="15.556192">
        <ele>200.909</ele>
        <time>1970-01-01T01:00:00Z</time>
      </trkpt>
      <trkpt lat="57.472599" lon="15.556325">
        <ele>200.818</ele>
        <time>1970-01-01T01:00:00Z</time>
      </trkpt>
      <trkpt lat="57.472565" lon="15.556496">
        <ele>200.727</ele>
        <time>1970-01-01T01:00:00Z</time>
      </trkpt>
      <trkpt lat="57.472547" lon="15.556652">
        <ele>200.727</ele>
        <time>1970-01-01T01:00:00Z</time>
      </trkpt>
      <trkpt lat="57.47251" lon="15.556793">
        <ele>200.818</ele>
        <time>1970-01-01T01:00:00Z</time>
      </trkpt>
      <trkpt lat="57.472488" lon="15.556985">
        <ele>201.091</ele>
        <time>1970-01-01T01:00:00Z</time>
      </trkpt>
      <trkpt lat="57.472462" lon="15.557132">
        <ele>201.364</ele>
        <time>1970-01-01T01:00:00Z</time>
      </trkpt>
      <trkpt lat="57.472441" lon="15.55731">
        <ele>201.545</ele>
        <time>1970-01-01T01:00:00Z</time>
      </trkpt>
      <trkpt lat="57.472438" lon="15.557484">
        <ele>201.636</ele>
        <time>1970-01-01T01:00:00Z</time>
      </trkpt>
      <trkpt lat="57.472444" lon="15.55764">
        <ele>201.727</ele>
        <time>1970-01-01T01:00:00Z</time>
      </trkpt>
      <trkpt lat="57.472454" lon="15.557794">
        <ele>201.818</ele>
        <time>1970-01-01T01:00:00Z</time>
      </trkpt>
      <trkpt lat="57.472463" lon="15.557994">
        <ele>201.909</ele>
        <time>1970-01-01T01:00:00Z</time>
      </trkpt>
      <trkpt lat="57.472448" lon="15.558145">
        <ele>202</ele>
        <time>1970-01-01T01:00:00Z</time>
      </trkpt>
      <trkpt lat="57.472446" lon="15.558304">
        <ele>202.182</ele>
        <time>1970-01-01T01:00:00Z</time>
      </trkpt>
      <trkpt lat="57.472446" lon="15.558467">
        <ele>202.364</ele>
        <time>1970-01-01T01:00:00Z</time>
      </trkpt>
      <trkpt lat="57.472437" lon="15.558644">
        <ele>202.455</ele>
        <time>1970-01-01T01:00:00Z</time>
      </trkpt>
      <trkpt lat="57.472414" lon="15.558841">
        <ele>202.545</ele>
        <time>1970-01-01T01:00:00Z</time>
      </trkpt>
      <trkpt lat="57.472392" lon="15.55901">
        <ele>202.636</ele>
        <time>1970-01-01T01:00:00Z</time>
      </trkpt>
      <trkpt lat="57.472362" lon="15.559169">
        <ele>202.909</ele>
        <time>1970-01-01T01:00:00Z</time>
      </trkpt>
      <trkpt lat="57.472337" lon="15.559351">
        <ele>203.273</ele>
        <time>1970-01-01T01:00:00Z</time>
      </trkpt>
      <trkpt lat="57.472311" lon="15.559504">
        <ele>203.636</ele>
        <time>1970-01-01T01:00:00Z</time>
      </trkpt>
      <trkpt lat="57.472275" lon="15.559663">
        <ele>204.091</ele>
        <time>1970-01-01T01:00:00Z</time>
      </trkpt>
      <trkpt lat="57.47221" lon="15.559808">
        <ele>204.545</ele>
        <time>1970-01-01T01:00:00Z</time>
      </trkpt>
      <trkpt lat="57.472136" lon="15.559949">
        <ele>205</ele>
        <time>1970-01-01T01:00:00Z</time>
      </trkpt>
      <trkpt lat="57.472065" lon="15.560046">
        <ele>205.364</ele>
        <time>1970-01-01T01:00:00Z</time>
      </trkpt>
      <trkpt lat="57.471995" lon="15.560135">
        <ele>205.727</ele>
        <time>1970-01-01T01:00:00Z</time>
      </trkpt>
      <trkpt lat="57.471924" lon="15.560214">
        <ele>206</ele>
        <time>1970-01-01T01:00:00Z</time>
      </trkpt>
      <trkpt lat="57.471816" lon="15.560273">
        <ele>206.182</ele>
        <time>1970-01-01T01:00:00Z</time>
      </trkpt>
      <trkpt lat="57.47172" lon="15.560229">
        <ele>206.455</ele>
        <time>1970-01-01T01:00:00Z</time>
      </trkpt>
      <trkpt lat="57.471621" lon="15.560201">
        <ele>206.636</ele>
        <time>1970-01-01T01:00:00Z</time>
      </trkpt>
      <trkpt lat="57.471541" lon="15.560146">
        <ele>206.818</ele>
        <time>1970-01-01T01:00:00Z</time>
      </trkpt>
      <trkpt lat="57.47143" lon="15.560096">
        <ele>207.091</ele>
        <time>1970-01-01T01:00:00Z</time>
      </trkpt>
      <trkpt lat="57.47133" lon="15.56002">
        <ele>207.364</ele>
        <time>1970-01-01T01:00:00Z</time>
      </trkpt>
      <trkpt lat="57.471247" lon="15.560043">
        <ele>207.636</ele>
        <time>1970-01-01T01:00:00Z</time>
      </trkpt>
      <trkpt lat="57.471158" lon="15.560066">
        <ele>207.909</ele>
        <time>1970-01-01T01:00:00Z</time>
      </trkpt>
      <trkpt lat="57.471073" lon="15.560073">
        <ele>208.182</ele>
        <time>1970-01-01T01:00:00Z</time>
      </trkpt>
      <trkpt lat="57.470957" lon="15.560062">
        <ele>208.455</ele>
        <time>1970-01-01T01:00:00Z</time>
      </trkpt>
      <trkpt lat="57.470861" lon="15.55999">
        <ele>208.909</ele>
        <time>1970-01-01T01:00:00Z</time>
      </trkpt>
      <trkpt lat="57.470776" lon="15.559997">
        <ele>209.455</ele>
        <time>1970-01-01T01:00:00Z</time>
      </trkpt>
      <trkpt lat="57.470691" lon="15.559974">
        <ele>210</ele>
        <time>1970-01-01T01:00:00Z</time>
      </trkpt>
      <trkpt lat="57.470602" lon="15.559919">
        <ele>210.545</ele>
        <time>1970-01-01T01:00:00Z</time>
      </trkpt>
      <trkpt lat="57.470498" lon="15.559894">
        <ele>211</ele>
        <time>1970-01-01T01:00:00Z</time>
      </trkpt>
      <trkpt lat="57.470399" lon="15.559913">
        <ele>211.364</ele>
        <time>1970-01-01T01:00:00Z</time>
      </trkpt>
      <trkpt lat="57.470306" lon="15.560007">
        <ele>211.727</ele>
        <time>1970-01-01T01:00:00Z</time>
      </trkpt>
      <trkpt lat="57.470248" lon="15.560143">
        <ele>212.091</ele>
        <time>1970-01-01T01:00:00Z</time>
      </trkpt>
      <trkpt lat="57.470178" lon="15.560235">
        <ele>212.455</ele>
        <time>1970-01-01T01:00:00Z</time>
      </trkpt>
      <trkpt lat="57.470091" lon="15.560273">
        <ele>212.818</ele>
        <time>1970-01-01T01:00:00Z</time>
      </trkpt>
      <trkpt lat="57.469985" lon="15.56029">
        <ele>213.273</ele>
        <time>1970-01-01T01:00:00Z</time>
      </trkpt>
      <trkpt lat="57.469901" lon="15.560366">
        <ele>213.636</ele>
        <time>1970-01-01T01:00:00Z</time>
      </trkpt>
      <trkpt lat="57.469804" lon="15.560386">
        <ele>213.818</ele>
        <time>1970-01-01T01:00:00Z</time>
      </trkpt>
      <trkpt lat="57.46972" lon="15.560388">
        <ele>213.818</ele>
        <time>1970-01-01T01:00:00Z</time>
      </trkpt>
      <trkpt lat="57.469632" lon="15.560392">
        <ele>213.727</ele>
        <time>1970-01-01T01:00:00Z</time>
      </trkpt>
      <trkpt lat="57.469528" lon="15.560419">
        <ele>213.636</ele>
        <time>1970-01-01T01:00:00Z</time>
      </trkpt>
      <trkpt lat="57.46944" lon="15.560454">
        <ele>213.455</ele>
        <time>1970-01-01T01:00:00Z</time>
      </trkpt>
      <trkpt lat="57.469349" lon="15.56054">
        <ele>213.182</ele>
        <time>1970-01-01T01:00:00Z</time>
      </trkpt>
      <trkpt lat="57.469267" lon="15.56062">
        <ele>212.818</ele>
        <time>1970-01-01T01:00:00Z</time>
      </trkpt>
      <trkpt lat="57.469183" lon="15.560721">
        <ele>212.455</ele>
        <time>1970-01-01T01:00:00Z</time>
      </trkpt>
      <trkpt lat="57.469105" lon="15.560806">
        <ele>212</ele>
        <time>1970-01-01T01:00:00Z</time>
      </trkpt>
      <trkpt lat="57.469014" lon="15.560912">
        <ele>211.364</ele>
        <time>1970-01-01T01:00:00Z</time>
      </trkpt>
      <trkpt lat="57.468932" lon="15.561012">
        <ele>210.727</ele>
        <time>1970-01-01T01:00:00Z</time>
      </trkpt>
      <trkpt lat="57.468833" lon="15.561066">
        <ele>210.091</ele>
        <time>1970-01-01T01:00:00Z</time>
      </trkpt>
      <trkpt lat="57.468755" lon="15.561118">
        <ele>209.455</ele>
        <time>1970-01-01T01:00:00Z</time>
      </trkpt>
      <trkpt lat="57.468679" lon="15.561191">
        <ele>208.909</ele>
        <time>1970-01-01T01:00:00Z</time>
      </trkpt>
      <trkpt lat="57.468589" lon="15.561313">
        <ele>208.273</ele>
        <time>1970-01-01T01:00:00Z</time>
      </trkpt>
      <trkpt lat="57.468504" lon="15.561363">
        <ele>207.727</ele>
        <time>1970-01-01T01:00:00Z</time>
      </trkpt>
      <trkpt lat="57.468412" lon="15.561407">
        <ele>207.091</ele>
        <time>1970-01-01T01:00:00Z</time>
      </trkpt>
      <trkpt lat="57.468317" lon="15.561489">
        <ele>206.455</ele>
        <time>1970-01-01T01:00:00Z</time>
      </trkpt>
      <trkpt lat="57.46824" lon="15.561545">
        <ele>205.818</ele>
        <time>1970-01-01T01:00:00Z</time>
      </trkpt>
      <trkpt lat="57.468139" lon="15.561587">
        <ele>205.273</ele>
        <time>1970-01-01T01:00:00Z</time>
      </trkpt>
      <trkpt lat="57.468044" lon="15.561621">
        <ele>204.818</ele>
        <time>1970-01-01T01:00:00Z</time>
      </trkpt>
      <trkpt lat="57.467973" lon="15.561533">
        <ele>204.364</ele>
        <time>1970-01-01T01:00:00Z</time>
      </trkpt>
      <trkpt lat="57.467877" lon="15.561602">
        <ele>204</ele>
        <time>1970-01-01T01:00:00Z</time>
      </trkpt>
      <trkpt lat="57.467778" lon="15.561662">
        <ele>203.727</ele>
        <time>1970-01-01T01:00:00Z</time>
      </trkpt>
      <trkpt lat="57.467674" lon="15.561705">
        <ele>203.545</ele>
        <time>1970-01-01T01:00:00Z</time>
      </trkpt>
      <trkpt lat="57.467582" lon="15.561756">
        <ele>203.455</ele>
        <time>1970-01-01T01:00:00Z</time>
      </trkpt>
      <trkpt lat="57.467496" lon="15.561821">
        <ele>203.364</ele>
        <time>1970-01-01T01:00:00Z</time>
      </trkpt>
      <trkpt lat="57.467406" lon="15.561901">
        <ele>203.364</ele>
        <time>1970-01-01T01:00:00Z</time>
      </trkpt>
      <trkpt lat="57.467321" lon="15.562014">
        <ele>203.455</ele>
        <time>1970-01-01T01:00:00Z</time>
      </trkpt>
      <trkpt lat="57.467241" lon="15.562104">
        <ele>203.545</ele>
        <time>1970-01-01T01:00:00Z</time>
      </trkpt>
      <trkpt lat="57.467162" lon="15.562173">
        <ele>203.636</ele>
        <time>1970-01-01T01:00:00Z</time>
      </trkpt>
      <trkpt lat="57.46708" lon="15.562268">
        <ele>203.727</ele>
        <time>1970-01-01T01:00:00Z</time>
      </trkpt>
      <trkpt lat="57.467004" lon="15.562365">
        <ele>203.818</ele>
        <time>1970-01-01T01:00:00Z</time>
      </trkpt>
      <trkpt lat="57.466931" lon="15.562492">
        <ele>203.909</ele>
        <time>1970-01-01T01:00:00Z</time>
      </trkpt>
      <trkpt lat="57.466879" lon="15.562641">
        <ele>204</ele>
        <time>1970-01-01T01:00:00Z</time>
      </trkpt>
      <trkpt lat="57.466833" lon="15.562767">
        <ele>203.909</ele>
        <time>1970-01-01T01:00:00Z</time>
      </trkpt>
      <trkpt lat="57.466784" lon="15.562901">
        <ele>203.818</ele>
        <time>1970-01-01T01:00:00Z</time>
      </trkpt>
      <trkpt lat="57.466724" lon="15.563017">
        <ele>203.636</ele>
        <time>1970-01-01T01:00:00Z</time>
      </trkpt>
      <trkpt lat="57.466668" lon="15.56314">
        <ele>203.455</ele>
        <time>1970-01-01T01:00:00Z</time>
      </trkpt>
      <trkpt lat="57.46664" lon="15.563289">
        <ele>203.182</ele>
        <time>1970-01-01T01:00:00Z</time>
      </trkpt>
      <trkpt lat="57.466634" lon="15.563461">
        <ele>202.818</ele>
        <time>1970-01-01T01:00:00Z</time>
      </trkpt>
      <trkpt lat="57.466622" lon="15.563625">
        <ele>202.455</ele>
        <time>1970-01-01T01:00:00Z</time>
      </trkpt>
      <trkpt lat="57.466606" lon="15.563781">
        <ele>202</ele>
        <time>1970-01-01T01:00:00Z</time>
      </trkpt>
      <trkpt lat="57.466564" lon="15.56393">
        <ele>201.545</ele>
        <time>1970-01-01T01:00:00Z</time>
      </trkpt>
      <trkpt lat="57.466532" lon="15.564071">
        <ele>201.182</ele>
        <time>1970-01-01T01:00:00Z</time>
      </trkpt>
      <trkpt lat="57.466473" lon="15.564201">
        <ele>200.818</ele>
        <time>1970-01-01T01:00:00Z</time>
      </trkpt>
      <trkpt lat="57.466416" lon="15.56434">
        <ele>200.636</ele>
        <time>1970-01-01T01:00:00Z</time>
      </trkpt>
      <trkpt lat="57.466354" lon="15.564478">
        <ele>200.545</ele>
        <time>1970-01-01T01:00:00Z</time>
      </trkpt>
      <trkpt lat="57.46628" lon="15.56462">
        <ele>200.636</ele>
        <time>1970-01-01T01:00:00Z</time>
      </trkpt>
      <trkpt lat="57.466188" lon="15.564708">
        <ele>200.818</ele>
        <time>1970-01-01T01:00:00Z</time>
      </trkpt>
      <trkpt lat="57.466111" lon="15.564779">
        <ele>201.182</ele>
        <time>1970-01-01T01:00:00Z</time>
      </trkpt>
      <trkpt lat="57.466019" lon="15.56484">
        <ele>201.727</ele>
        <time>1970-01-01T01:00:00Z</time>
      </trkpt>
      <trkpt lat="57.465933" lon="15.564876">
        <ele>202.273</ele>
        <time>1970-01-01T01:00:00Z</time>
      </trkpt>
      <trkpt lat="57.46584" lon="15.564921">
        <ele>202.909</ele>
        <time>1970-01-01T01:00:00Z</time>
      </trkpt>
      <trkpt lat="57.465745" lon="15.564948">
        <ele>203.636</ele>
        <time>1970-01-01T01:00:00Z</time>
      </trkpt>
      <trkpt lat="57.465655" lon="15.564966">
        <ele>204.273</ele>
        <time>1970-01-01T01:00:00Z</time>
      </trkpt>
      <trkpt lat="57.465574" lon="15.564967">
        <ele>204.909</ele>
        <time>1970-01-01T01:00:00Z</time>
      </trkpt>
      <trkpt lat="57.46549" lon="15.564953">
        <ele>205.455</ele>
        <time>1970-01-01T01:00:00Z</time>
      </trkpt>
      <trkpt lat="57.465401" lon="15.564939">
        <ele>205.909</ele>
        <time>1970-01-01T01:00:00Z</time>
      </trkpt>
      <trkpt lat="57.465317" lon="15.564965">
        <ele>206.364</ele>
        <time>1970-01-01T01:00:00Z</time>
      </trkpt>
      <trkpt lat="57.46521" lon="15.564969">
        <ele>206.727</ele>
        <time>1970-01-01T01:00:00Z</time>
      </trkpt>
      <trkpt lat="57.465115" lon="15.564986">
        <ele>207.091</ele>
        <time>1970-01-01T01:00:00Z</time>
      </trkpt>
      <trkpt lat="57.465031" lon="15.565022">
        <ele>207.364</ele>
        <time>1970-01-01T01:00:00Z</time>
      </trkpt>
      <trkpt lat="57.464946" lon="15.565061">
        <ele>207.545</ele>
        <time>1970-01-01T01:00:00Z</time>
      </trkpt>
      <trkpt lat="57.464872" lon="15.565143">
        <ele>207.727</ele>
        <time>1970-01-01T01:00:00Z</time>
      </trkpt>
      <trkpt lat="57.464811" lon="15.565245">
        <ele>207.727</ele>
        <time>1970-01-01T01:00:00Z</time>
      </trkpt>
      <trkpt lat="57.46476" lon="15.5654">
        <ele>207.636</ele>
        <time>1970-01-01T01:00:00Z</time>
      </trkpt>
      <trkpt lat="57.464683" lon="15.565455">
        <ele>207.545</ele>
        <time>1970-01-01T01:00:00Z</time>
      </trkpt>
      <trkpt lat="57.464579" lon="15.565444">
        <ele>207.455</ele>
        <time>1970-01-01T01:00:00Z</time>
      </trkpt>
      <trkpt lat="57.464492" lon="15.56539">
        <ele>207.364</ele>
        <time>1970-01-01T01:00:00Z</time>
      </trkpt>
      <trkpt lat="57.464406" lon="15.565294">
        <ele>207.182</ele>
        <time>1970-01-01T01:00:00Z</time>
      </trkpt>
      <trkpt lat="57.464339" lon="15.565158">
        <ele>207</ele>
        <time>1970-01-01T01:00:00Z</time>
      </trkpt>
      <trkpt lat="57.4643" lon="15.564984">
        <ele>206.818</ele>
        <time>1970-01-01T01:00:00Z</time>
      </trkpt>
      <trkpt lat="57.46424" lon="15.56486">
        <ele>206.727</ele>
        <time>1970-01-01T01:00:00Z</time>
      </trkpt>
      <trkpt lat="57.464174" lon="15.564709">
        <ele>206.727</ele>
        <time>1970-01-01T01:00:00Z</time>
      </trkpt>
      <trkpt lat="57.46415" lon="15.564554">
        <ele>206.727</ele>
        <time>1970-01-01T01:00:00Z</time>
      </trkpt>
      <trkpt lat="57.46413" lon="15.564403">
        <ele>206.818</ele>
        <time>1970-01-01T01:00:00Z</time>
      </trkpt>
      <trkpt lat="57.46411" lon="15.564245">
        <ele>207</ele>
        <time>1970-01-01T01:00:00Z</time>
      </trkpt>
      <trkpt lat="57.464097" lon="15.564085">
        <ele>207.182</ele>
        <time>1970-01-01T01:00:00Z</time>
      </trkpt>
      <trkpt lat="57.464113" lon="15.563932">
        <ele>207.455</ele>
        <time>1970-01-01T01:00:00Z</time>
      </trkpt>
      <trkpt lat="57.464149" lon="15.563748">
        <ele>207.727</ele>
        <time>1970-01-01T01:00:00Z</time>
      </trkpt>
      <trkpt lat="57.464183" lon="15.563609">
        <ele>208</ele>
        <time>1970-01-01T01:00:00Z</time>
      </trkpt>
      <trkpt lat="57.464218" lon="15.563454">
        <ele>208.273</ele>
        <time>1970-01-01T01:00:00Z</time>
      </trkpt>
      <trkpt lat="57.464238" lon="15.563289">
        <ele>208.545</ele>
        <time>1970-01-01T01:00:00Z</time>
      </trkpt>
      <trkpt lat="57.464219" lon="15.563119">
        <ele>208.727</ele>
        <time>1970-01-01T01:00:00Z</time>
      </trkpt>
      <trkpt lat="57.464201" lon="15.562971">
        <ele>208.909</ele>
        <time>1970-01-01T01:00:00Z</time>
      </trkpt>
      <trkpt lat="57.464175" lon="15.562827">
        <ele>209.182</ele>
        <time>1970-01-01T01:00:00Z</time>
      </trkpt>
      <trkpt lat="57.464168" lon="15.562661">
        <ele>209.545</ele>
        <time>1970-01-01T01:00:00Z</time>
      </trkpt>
      <trkpt lat="57.464159" lon="15.562494">
        <ele>209.909</ele>
        <time>1970-01-01T01:00:00Z</time>
      </trkpt>
      <trkpt lat="57.464145" lon="15.562331">
        <ele>210.364</ele>
        <time>1970-01-01T01:00:00Z</time>
      </trkpt>
      <trkpt lat="57.464122" lon="15.562153">
        <ele>210.727</ele>
        <time>1970-01-01T01:00:00Z</time>
      </trkpt>
      <trkpt lat="57.464162" lon="15.562">
        <ele>211.091</ele>
        <time>1970-01-01T01:00:00Z</time>
      </trkpt>
      <trkpt lat="57.46414" lon="15.561814">
        <ele>211.455</ele>
        <time>1970-01-01T01:00:00Z</time>
      </trkpt>
      <trkpt lat="57.464132" lon="15.561644">
        <ele>211.818</ele>
        <time>1970-01-01T01:00:00Z</time>
      </trkpt>
      <trkpt lat="57.464082" lon="15.56147">
        <ele>212.091</ele>
        <time>1970-01-01T01:00:00Z</time>
      </trkpt>
      <trkpt lat="57.464025" lon="15.561349">
        <ele>212.364</ele>
        <time>1970-01-01T01:00:00Z</time>
      </trkpt>
      <trkpt lat="57.463968" lon="15.561227">
        <ele>212.636</ele>
        <time>1970-01-01T01:00:00Z</time>
      </trkpt>
      <trkpt lat="57.463899" lon="15.561117">
        <ele>212.818</ele>
        <time>1970-01-01T01:00:00Z</time>
      </trkpt>
      <trkpt lat="57.463832" lon="15.561027">
        <ele>212.909</ele>
        <time>1970-01-01T01:00:00Z</time>
      </trkpt>
      <trkpt lat="57.463778" lon="15.560854">
        <ele>213</ele>
        <time>1970-01-01T01:00:00Z</time>
      </trkpt>
      <trkpt lat="57.463753" lon="15.560699">
        <ele>213</ele>
        <time>1970-01-01T01:00:00Z</time>
      </trkpt>
      <trkpt lat="57.463729" lon="15.560554">
        <ele>213</ele>
        <time>1970-01-01T01:00:00Z</time>
      </trkpt>
      <trkpt lat="57.463695" lon="15.560405">
        <ele>213</ele>
        <time>1970-01-01T01:00:00Z</time>
      </trkpt>
      <trkpt lat="57.463647" lon="15.560253">
        <ele>213</ele>
        <time>1970-01-01T01:00:00Z</time>
      </trkpt>
      <trkpt lat="57.463607" lon="15.56007">
        <ele>213</ele>
        <time>1970-01-01T01:00:00Z</time>
      </trkpt>
      <trkpt lat="57.463543" lon="15.559917">
        <ele>213.091</ele>
        <time>1970-01-01T01:00:00Z</time>
      </trkpt>
      <trkpt lat="57.463487" lon="15.559743">
        <ele>213.182</ele>
        <time>1970-01-01T01:00:00Z</time>
      </trkpt>
      <trkpt lat="57.463418" lon="15.559646">
        <ele>213.364</ele>
        <time>1970-01-01T01:00:00Z</time>
      </trkpt>
      <trkpt lat="57.463362" lon="15.55949">
        <ele>213.545</ele>
        <time>1970-01-01T01:00:00Z</time>
      </trkpt>
      <trkpt lat="57.463307" lon="15.559359">
        <ele>213.727</ele>
        <time>1970-01-01T01:00:00Z</time>
      </trkpt>
      <trkpt lat="57.463253" lon="15.55923">
        <ele>213.818</ele>
        <time>1970-01-01T01:00:00Z</time>
      </trkpt>
      <trkpt lat="57.463194" lon="15.559082">
        <ele>213.909</ele>
        <time>1970-01-01T01:00:00Z</time>
      </trkpt>
      <trkpt lat="57.46312" lon="15.558994">
        <ele>214</ele>
        <time>1970-01-01T01:00:00Z</time>
      </trkpt>
      <trkpt lat="57.463023" lon="15.558951">
        <ele>214.091</ele>
        <time>1970-01-01T01:00:00Z</time>
      </trkpt>
      <trkpt lat="57.462932" lon="15.558859">
        <ele>214.182</ele>
        <time>1970-01-01T01:00:00Z</time>
      </trkpt>
      <trkpt lat="57.462888" lon="15.558728">
        <ele>214.273</ele>
        <time>1970-01-01T01:00:00Z</time>
      </trkpt>
      <trkpt lat="57.462873" lon="15.558563">
        <ele>214.273</ele>
        <time>1970-01-01T01:00:00Z</time>
      </trkpt>
      <trkpt lat="57.462909" lon="15.558384">
        <ele>214.182</ele>
        <time>1970-01-01T01:00:00Z</time>
      </trkpt>
      <trkpt lat="57.462945" lon="15.558232">
        <ele>214</ele>
        <time>1970-01-01T01:00:00Z</time>
      </trkpt>
      <trkpt lat="57.462971" lon="15.558037">
        <ele>213.727</ele>
        <time>1970-01-01T01:00:00Z</time>
      </trkpt>
      <trkpt lat="57.462968" lon="15.557871">
        <ele>213.364</ele>
        <time>1970-01-01T01:00:00Z</time>
      </trkpt>
      <trkpt lat="57.462968" lon="15.557713">
        <ele>213.091</ele>
        <time>1970-01-01T01:00:00Z</time>
      </trkpt>
      <trkpt lat="57.462967" lon="15.557562">
        <ele>212.727</ele>
        <time>1970-01-01T01:00:00Z</time>
      </trkpt>
      <trkpt lat="57.462966" lon="15.557403">
        <ele>212.364</ele>
        <time>1970-01-01T01:00:00Z</time>
      </trkpt>
      <trkpt lat="57.462956" lon="15.557238">
        <ele>212.091</ele>
        <time>1970-01-01T01:00:00Z</time>
      </trkpt>
      <trkpt lat="57.462912" lon="15.557082">
        <ele>211.818</ele>
        <time>1970-01-01T01:00:00Z</time>
      </trkpt>
      <trkpt lat="57.462858" lon="15.556946">
        <ele>211.636</ele>
        <time>1970-01-01T01:00:00Z</time>
      </trkpt>
      <trkpt lat="57.462787" lon="15.556802">
        <ele>211.455</ele>
        <time>1970-01-01T01:00:00Z</time>
      </trkpt>
      <trkpt lat="57.462725" lon="15.556656">
        <ele>211.364</ele>
        <time>1970-01-01T01:00:00Z</time>
      </trkpt>
      <trkpt lat="57.462648" lon="15.556525">
        <ele>211.364</ele>
        <time>1970-01-01T01:00:00Z</time>
      </trkpt>
      <trkpt lat="57.462578" lon="15.556382">
        <ele>211.455</ele>
        <time>1970-01-01T01:00:00Z</time>
      </trkpt>
      <trkpt lat="57.462512" lon="15.556262">
        <ele>211.636</ele>
        <time>1970-01-01T01:00:00Z</time>
      </trkpt>
      <trkpt lat="57.462453" lon="15.556107">
        <ele>211.818</ele>
        <time>1970-01-01T01:00:00Z</time>
      </trkpt>
      <trkpt lat="57.462406" lon="15.555966">
        <ele>212</ele>
        <time>1970-01-01T01:00:00Z</time>
      </trkpt>
      <trkpt lat="57.462345" lon="15.555849">
        <ele>212.182</ele>
        <time>1970-01-01T01:00:00Z</time>
      </trkpt>
      <trkpt lat="57.462282" lon="15.555728">
        <ele>212.364</ele>
        <time>1970-01-01T01:00:00Z</time>
      </trkpt>
      <trkpt lat="57.462226" lon="15.555576">
        <ele>212.545</ele>
        <time>1970-01-01T01:00:00Z</time>
      </trkpt>
      <trkpt lat="57.462169" lon="15.555428">
        <ele>212.636</ele>
        <time>1970-01-01T01:00:00Z</time>
      </trkpt>
      <trkpt lat="57.462136" lon="15.555273">
        <ele>212.727</ele>
        <time>1970-01-01T01:00:00Z</time>
      </trkpt>
      <trkpt lat="57.462115" lon="15.555121">
        <ele>212.818</ele>
        <time>1970-01-01T01:00:00Z</time>
      </trkpt>
      <trkpt lat="57.462082" lon="15.554979">
        <ele>212.727</ele>
        <time>1970-01-01T01:00:00Z</time>
      </trkpt>
      <trkpt lat="57.462037" lon="15.554822">
        <ele>212.636</ele>
        <time>1970-01-01T01:00:00Z</time>
      </trkpt>
      <trkpt lat="57.461997" lon="15.554688">
        <ele>212.545</ele>
        <time>1970-01-01T01:00:00Z</time>
      </trkpt>
      <trkpt lat="57.461954" lon="15.554537">
        <ele>212.455</ele>
        <time>1970-01-01T01:00:00Z</time>
      </trkpt>
      <trkpt lat="57.461909" lon="15.554362">
        <ele>212.364</ele>
        <time>1970-01-01T01:00:00Z</time>
      </trkpt>
      <trkpt lat="57.461872" lon="15.554213">
        <ele>212.273</ele>
        <time>1970-01-01T01:00:00Z</time>
      </trkpt>
      <trkpt lat="57.46186" lon="15.554051">
        <ele>212.091</ele>
        <time>1970-01-01T01:00:00Z</time>
      </trkpt>
      <trkpt lat="57.461868" lon="15.553881">
        <ele>211.818</ele>
        <time>1970-01-01T01:00:00Z</time>
      </trkpt>
      <trkpt lat="57.461892" lon="15.553725">
        <ele>211.545</ele>
        <time>1970-01-01T01:00:00Z</time>
      </trkpt>
      <trkpt lat="57.461954" lon="15.553605">
        <ele>211.273</ele>
        <time>1970-01-01T01:00:00Z</time>
      </trkpt>
      <trkpt lat="57.462031" lon="15.553492">
        <ele>211</ele>
        <time>1970-01-01T01:00:00Z</time>
      </trkpt>
      <trkpt lat="57.462074" lon="15.553349">
        <ele>210.727</ele>
        <time>1970-01-01T01:00:00Z</time>
      </trkpt>
      <trkpt lat="57.462129" lon="15.553221">
        <ele>210.545</ele>
        <time>1970-01-01T01:00:00Z</time>
      </trkpt>
      <trkpt lat="57.462193" lon="15.553124">
        <ele>210.364</ele>
        <time>1970-01-01T01:00:00Z</time>
      </trkpt>
      <trkpt lat="57.46227" lon="15.553041">
        <ele>210.182</ele>
        <time>1970-01-01T01:00:00Z</time>
      </trkpt>
      <trkpt lat="57.462331" lon="15.552911">
        <ele>210.091</ele>
        <time>1970-01-01T01:00:00Z</time>
      </trkpt>
      <trkpt lat="57.462398" lon="15.552764">
        <ele>210.091</ele>
        <time>1970-01-01T01:00:00Z</time>
      </trkpt>
      <trkpt lat="57.462459" lon="15.552619">
        <ele>210.091</ele>
        <time>1970-01-01T01:00:00Z</time>
      </trkpt>
      <trkpt lat="57.462518" lon="15.552491">
        <ele>210.273</ele>
        <time>1970-01-01T01:00:00Z</time>
      </trkpt>
      <trkpt lat="57.462557" lon="15.552333">
        <ele>210.455</ele>
        <time>1970-01-01T01:00:00Z</time>
      </trkpt>
      <trkpt lat="57.462574" lon="15.552156">
        <ele>210.636</ele>
        <time>1970-01-01T01:00:00Z</time>
      </trkpt>
      <trkpt lat="57.462596" lon="15.55199">
        <ele>210.818</ele>
        <time>1970-01-01T01:00:00Z</time>
      </trkpt>
      <trkpt lat="57.462616" lon="15.551839">
        <ele>211.091</ele>
        <time>1970-01-01T01:00:00Z</time>
      </trkpt>
      <trkpt lat="57.462629" lon="15.551682">
        <ele>211.273</ele>
        <time>1970-01-01T01:00:00Z</time>
      </trkpt>
      <trkpt lat="57.462645" lon="15.5515">
        <ele>211.545</ele>
        <time>1970-01-01T01:00:00Z</time>
      </trkpt>
      <trkpt lat="57.462677" lon="15.551333">
        <ele>211.818</ele>
        <time>1970-01-01T01:00:00Z</time>
      </trkpt>
      <trkpt lat="57.462716" lon="15.551169">
        <ele>212</ele>
        <time>1970-01-01T01:00:00Z</time>
      </trkpt>
      <trkpt lat="57.462781" lon="15.551037">
        <ele>212.091</ele>
        <time>1970-01-01T01:00:00Z</time>
      </trkpt>
      <trkpt lat="57.462842" lon="15.550914">
        <ele>212.091</ele>
        <time>1970-01-01T01:00:00Z</time>
      </trkpt>
      <trkpt lat="57.462894" lon="15.550792">
        <ele>212</ele>
        <time>1970-01-01T01:00:00Z</time>
      </trkpt>
      <trkpt lat="57.462959" lon="15.55069">
        <ele>211.818</ele>
        <time>1970-01-01T01:00:00Z</time>
      </trkpt>
      <trkpt lat="57.463037" lon="15.550596">
        <ele>211.636</ele>
        <time>1970-01-01T01:00:00Z</time>
      </trkpt>
      <trkpt lat="57.46311" lon="15.550494">
        <ele>211.455</ele>
        <time>1970-01-01T01:00:00Z</time>
      </trkpt>
      <trkpt lat="57.463197" lon="15.550375">
        <ele>211.182</ele>
        <time>1970-01-01T01:00:00Z</time>
      </trkpt>
      <trkpt lat="57.463248" lon="15.550255">
        <ele>210.818</ele>
        <time>1970-01-01T01:00:00Z</time>
      </trkpt>
      <trkpt lat="57.463333" lon="15.550212">
        <ele>210.364</ele>
        <time>1970-01-01T01:00:00Z</time>
      </trkpt>
      <trkpt lat="57.463395" lon="15.550059">
        <ele>209.909</ele>
        <time>1970-01-01T01:00:00Z</time>
      </trkpt>
      <trkpt lat="57.463433" lon="15.549873">
        <ele>209.455</ele>
        <time>1970-01-01T01:00:00Z</time>
      </trkpt>
      <trkpt lat="57.463488" lon="15.549749">
        <ele>209</ele>
        <time>1970-01-01T01:00:00Z</time>
      </trkpt>
      <trkpt lat="57.463551" lon="15.549615">
        <ele>208.636</ele>
        <time>1970-01-01T01:00:00Z</time>
      </trkpt>
      <trkpt lat="57.46362" lon="15.549501">
        <ele>208.273</ele>
        <time>1970-01-01T01:00:00Z</time>
      </trkpt>
      <trkpt lat="57.463681" lon="15.549357">
        <ele>208</ele>
        <time>1970-01-01T01:00:00Z</time>
      </trkpt>
      <trkpt lat="57.463737" lon="15.549212">
        <ele>207.636</ele>
        <time>1970-01-01T01:00:00Z</time>
      </trkpt>
      <trkpt lat="57.463787" lon="15.549082">
        <ele>207.273</ele>
        <time>1970-01-01T01:00:00Z</time>
      </trkpt>
      <trkpt lat="57.463828" lon="15.54895">
        <ele>207</ele>
        <time>1970-01-01T01:00:00Z</time>
      </trkpt>
      <trkpt lat="57.463898" lon="15.548837">
        <ele>206.818</ele>
        <time>1970-01-01T01:00:00Z</time>
      </trkpt>
      <trkpt lat="57.463948" lon="15.548708">
        <ele>206.636</ele>
        <time>1970-01-01T01:00:00Z</time>
      </trkpt>
      <trkpt lat="57.464005" lon="15.548566">
        <ele>206.455</ele>
        <time>1970-01-01T01:00:00Z</time>
      </trkpt>
      <trkpt lat="57.464059" lon="15.548428">
        <ele>206.364</ele>
        <time>1970-01-01T01:00:00Z</time>
      </trkpt>
      <trkpt lat="57.464116" lon="15.548265">
        <ele>206.273</ele>
        <time>1970-01-01T01:00:00Z</time>
      </trkpt>
      <trkpt lat="57.464165" lon="15.548138">
        <ele>206.182</ele>
        <time>1970-01-01T01:00:00Z</time>
      </trkpt>
      <trkpt lat="57.464232" lon="15.548003">
        <ele>206.091</ele>
        <time>1970-01-01T01:00:00Z</time>
      </trkpt>
      <trkpt lat="57.464296" lon="15.547857">
        <ele>205.909</ele>
        <time>1970-01-01T01:00:00Z</time>
      </trkpt>
      <trkpt lat="57.464356" lon="15.547721">
        <ele>205.818</ele>
        <time>1970-01-01T01:00:00Z</time>
      </trkpt>
      <trkpt lat="57.464421" lon="15.54758">
        <ele>205.636</ele>
        <time>1970-01-01T01:00:00Z</time>
      </trkpt>
      <trkpt lat="57.464479" lon="15.547427">
        <ele>205.364</ele>
        <time>1970-01-01T01:00:00Z</time>
      </trkpt>
      <trkpt lat="57.464527" lon="15.547299">
        <ele>205.091</ele>
        <time>1970-01-01T01:00:00Z</time>
      </trkpt>
      <trkpt lat="57.464583" lon="15.547185">
        <ele>204.727</ele>
        <time>1970-01-01T01:00:00Z</time>
      </trkpt>
      <trkpt lat="57.464624" lon="15.547054">
        <ele>204.273</ele>
        <time>1970-01-01T01:00:00Z</time>
      </trkpt>
      <trkpt lat="57.46468" lon="15.546938">
        <ele>203.818</ele>
        <time>1970-01-01T01:00:00Z</time>
      </trkpt>
      <trkpt lat="57.464736" lon="15.546817">
        <ele>203.364</ele>
        <time>1970-01-01T01:00:00Z</time>
      </trkpt>
      <trkpt lat="57.464809" lon="15.546656">
        <ele>202.909</ele>
        <time>1970-01-01T01:00:00Z</time>
      </trkpt>
      <trkpt lat="57.464887" lon="15.546524">
        <ele>202.455</ele>
        <time>1970-01-01T01:00:00Z</time>
      </trkpt>
      <trkpt lat="57.464941" lon="15.546389">
        <ele>202.091</ele>
        <time>1970-01-01T01:00:00Z</time>
      </trkpt>
      <trkpt lat="57.464983" lon="15.546246">
        <ele>201.727</ele>
        <time>1970-01-01T01:00:00Z</time>
      </trkpt>
      <trkpt lat="57.465059" lon="15.546121">
        <ele>201.455</ele>
        <time>1970-01-01T01:00:00Z</time>
      </trkpt>
      <trkpt lat="57.465138" lon="15.546079">
        <ele>201.273</ele>
        <time>1970-01-01T01:00:00Z</time>
      </trkpt>
      <trkpt lat="57.465243" lon="15.54602">
        <ele>201.091</ele>
        <time>1970-01-01T01:00:00Z</time>
      </trkpt>
      <trkpt lat="57.465351" lon="15.545976">
        <ele>201</ele>
        <time>1970-01-01T01:00:00Z</time>
      </trkpt>
      <trkpt lat="57.465437" lon="15.545909">
        <ele>200.909</ele>
        <time>1970-01-01T01:00:00Z</time>
      </trkpt>
      <trkpt lat="57.465495" lon="15.545784">
        <ele>200.818</ele>
        <time>1970-01-01T01:00:00Z</time>
      </trkpt>
      <trkpt lat="57.465575" lon="15.545664">
        <ele>200.727</ele>
        <time>1970-01-01T01:00:00Z</time>
      </trkpt>
      <trkpt lat="57.465632" lon="15.545554">
        <ele>200.545</ele>
        <time>1970-01-01T01:00:00Z</time>
      </trkpt>
      <trkpt lat="57.465701" lon="15.545473">
        <ele>200.364</ele>
        <time>1970-01-01T01:00:00Z</time>
      </trkpt>
      <trkpt lat="57.465778" lon="15.545394">
        <ele>200.182</ele>
        <time>1970-01-01T01:00:00Z</time>
      </trkpt>
      <trkpt lat="57.465848" lon="15.545308">
        <ele>199.909</ele>
        <time>1970-01-01T01:00:00Z</time>
      </trkpt>
      <trkpt lat="57.465913" lon="15.545217">
        <ele>199.636</ele>
        <time>1970-01-01T01:00:00Z</time>
      </trkpt>
      <trkpt lat="57.465981" lon="15.545119">
        <ele>199.364</ele>
        <time>1970-01-01T01:00:00Z</time>
      </trkpt>
      <trkpt lat="57.466025" lon="15.544977">
        <ele>199.091</ele>
        <time>1970-01-01T01:00:00Z</time>
      </trkpt>
      <trkpt lat="57.466082" lon="15.544867">
        <ele>198.818</ele>
        <time>1970-01-01T01:00:00Z</time>
      </trkpt>
      <trkpt lat="57.466153" lon="15.544788">
        <ele>198.636</ele>
        <time>1970-01-01T01:00:00Z</time>
      </trkpt>
      <trkpt lat="57.466214" lon="15.544668">
        <ele>198.455</ele>
        <time>1970-01-01T01:00:00Z</time>
      </trkpt>
      <trkpt lat="57.466272" lon="15.544551">
        <ele>198.364</ele>
        <time>1970-01-01T01:00:00Z</time>
      </trkpt>
      <trkpt lat="57.46635" lon="15.544425">
        <ele>198.364</ele>
        <time>1970-01-01T01:00:00Z</time>
      </trkpt>
      <trkpt lat="57.466436" lon="15.54435">
        <ele>198.273</ele>
        <time>1970-01-01T01:00:00Z</time>
      </trkpt>
      <trkpt lat="57.466503" lon="15.544236">
        <ele>198.182</ele>
        <time>1970-01-01T01:00:00Z</time>
      </trkpt>
      <trkpt lat="57.466562" lon="15.544124">
        <ele>198.182</ele>
        <time>1970-01-01T01:00:00Z</time>
      </trkpt>
      <trkpt lat="57.466627" lon="15.544013">
        <ele>198.182</ele>
        <time>1970-01-01T01:00:00Z</time>
      </trkpt>
      <trkpt lat="57.466698" lon="15.543936">
        <ele>198.182</ele>
        <time>1970-01-01T01:00:00Z</time>
      </trkpt>
      <trkpt lat="57.466779" lon="15.543846">
        <ele>198.091</ele>
        <time>1970-01-01T01:00:00Z</time>
      </trkpt>
      <trkpt lat="57.466859" lon="15.543711">
        <ele>198</ele>
        <time>1970-01-01T01:00:00Z</time>
      </trkpt>
      <trkpt lat="57.466913" lon="15.543572">
        <ele>197.909</ele>
        <time>1970-01-01T01:00:00Z</time>
      </trkpt>
      <trkpt lat="57.466954" lon="15.543406">
        <ele>197.818</ele>
        <time>1970-01-01T01:00:00Z</time>
      </trkpt>
      <trkpt lat="57.466954" lon="15.543235">
        <ele>197.636</ele>
        <time>1970-01-01T01:00:00Z</time>
      </trkpt>
      <trkpt lat="57.466965" lon="15.543046">
        <ele>197.455</ele>
        <time>1970-01-01T01:00:00Z</time>
      </trkpt>
      <trkpt lat="57.466963" lon="15.542857">
        <ele>197.545</ele>
        <time>1970-01-01T01:00:00Z</time>
      </trkpt>
      <trkpt lat="57.466969" lon="15.542678">
        <ele>197.727</ele>
        <time>1970-01-01T01:00:00Z</time>
      </trkpt>
      <trkpt lat="57.466951" lon="15.54252">
        <ele>198</ele>
        <time>1970-01-01T01:00:00Z</time>
      </trkpt>
      <trkpt lat="57.467016" lon="15.542344">
        <ele>198.364</ele>
        <time>1970-01-01T01:00:00Z</time>
      </trkpt>
      <trkpt lat="57.467051" lon="15.542174">
        <ele>198.727</ele>
        <time>1970-01-01T01:00:00Z</time>
      </trkpt>
      <trkpt lat="57.467095" lon="15.541995">
        <ele>199.182</ele>
        <time>1970-01-01T01:00:00Z</time>
      </trkpt>
      <trkpt lat="57.467149" lon="15.541826">
        <ele>199.636</ele>
        <time>1970-01-01T01:00:00Z</time>
      </trkpt>
      <trkpt lat="57.467186" lon="15.541689">
        <ele>200.091</ele>
        <time>1970-01-01T01:00:00Z</time>
      </trkpt>
      <trkpt lat="57.467243" lon="15.541559">
        <ele>200.545</ele>
        <time>1970-01-01T01:00:00Z</time>
      </trkpt>
      <trkpt lat="57.467314" lon="15.54144">
        <ele>201</ele>
        <time>1970-01-01T01:00:00Z</time>
      </trkpt>
      <trkpt lat="57.467403" lon="15.541398">
        <ele>201.364</ele>
        <time>1970-01-01T01:00:00Z</time>
      </trkpt>
      <trkpt lat="57.467507" lon="15.541349">
        <ele>201.455</ele>
        <time>1970-01-01T01:00:00Z</time>
      </trkpt>
      <trkpt lat="57.467594" lon="15.541299">
        <ele>201.455</ele>
        <time>1970-01-01T01:00:00Z</time>
      </trkpt>
      <trkpt lat="57.467676" lon="15.541242">
        <ele>201.273</ele>
        <time>1970-01-01T01:00:00Z</time>
      </trkpt>
      <trkpt lat="57.467771" lon="15.541305">
        <ele>201</ele>
        <time>1970-01-01T01:00:00Z</time>
      </trkpt>
      <trkpt lat="57.467871" lon="15.541269">
        <ele>200.818</ele>
        <time>1970-01-01T01:00:00Z</time>
      </trkpt>
      <trkpt lat="57.467957" lon="15.541257">
        <ele>200.545</ele>
        <time>1970-01-01T01:00:00Z</time>
      </trkpt>
      <trkpt lat="57.468051" lon="15.541167">
        <ele>200.182</ele>
        <time>1970-01-01T01:00:00Z</time>
      </trkpt>
      <trkpt lat="57.468136" lon="15.541103">
        <ele>199.909</ele>
        <time>1970-01-01T01:00:00Z</time>
      </trkpt>
      <trkpt lat="57.468174" lon="15.54097">
        <ele>199.545</ele>
        <time>1970-01-01T01:00:00Z</time>
      </trkpt>
      <trkpt lat="57.46821" lon="15.540804">
        <ele>199.182</ele>
        <time>1970-01-01T01:00:00Z</time>
      </trkpt>
      <trkpt lat="57.468279" lon="15.540647">
        <ele>198.909</ele>
        <time>1970-01-01T01:00:00Z</time>
      </trkpt>
      <trkpt lat="57.468339" lon="15.540465">
        <ele>198.727</ele>
        <time>1970-01-01T01:00:00Z</time>
      </trkpt>
      <trkpt lat="57.468356" lon="15.540281">
        <ele>198.545</ele>
        <time>1970-01-01T01:00:00Z</time>
      </trkpt>
      <trkpt lat="57.468395" lon="15.54014">
        <ele>198.545</ele>
        <time>1970-01-01T01:00:00Z</time>
      </trkpt>
      <trkpt lat="57.46842" lon="15.53999">
        <ele>198.545</ele>
        <time>1970-01-01T01:00:00Z</time>
      </trkpt>
      <trkpt lat="57.468448" lon="15.539798">
        <ele>198.545</ele>
        <time>1970-01-01T01:00:00Z</time>
      </trkpt>
      <trkpt lat="57.46847" lon="15.539605">
        <ele>198.545</ele>
        <time>1970-01-01T01:00:00Z</time>
      </trkpt>
      <trkpt lat="57.46848" lon="15.539454">
        <ele>198.636</ele>
        <time>1970-01-01T01:00:00Z</time>
      </trkpt>
      <trkpt lat="57.468483" lon="15.539286">
        <ele>198.636</ele>
        <time>1970-01-01T01:00:00Z</time>
      </trkpt>
      <trkpt lat="57.468472" lon="15.539116">
        <ele>198.727</ele>
        <time>1970-01-01T01:00:00Z</time>
      </trkpt>
      <trkpt lat="57.468457" lon="15.538968">
        <ele>198.818</ele>
        <time>1970-01-01T01:00:00Z</time>
      </trkpt>
      <trkpt lat="57.468481" lon="15.538811">
        <ele>198.909</ele>
        <time>1970-01-01T01:00:00Z</time>
      </trkpt>
      <trkpt lat="57.46852" lon="15.538657">
        <ele>199</ele>
        <time>1970-01-01T01:00:00Z</time>
      </trkpt>
      <trkpt lat="57.468539" lon="15.538506">
        <ele>199</ele>
        <time>1970-01-01T01:00:00Z</time>
      </trkpt>
      <trkpt lat="57.468575" lon="15.538365">
        <ele>198.909</ele>
        <time>1970-01-01T01:00:00Z</time>
      </trkpt>
      <trkpt lat="57.468622" lon="15.538219">
        <ele>198.909</ele>
        <time>1970-01-01T01:00:00Z</time>
      </trkpt>
      <trkpt lat="57.468686" lon="15.538108">
        <ele>198.818</ele>
        <time>1970-01-01T01:00:00Z</time>
      </trkpt>
      <trkpt lat="57.468756" lon="15.538002">
        <ele>198.818</ele>
        <time>1970-01-01T01:00:00Z</time>
      </trkpt>
      <trkpt lat="57.468826" lon="15.537858">
        <ele>198.818</ele>
        <time>1970-01-01T01:00:00Z</time>
      </trkpt>
      <trkpt lat="57.468883" lon="15.537711">
        <ele>198.909</ele>
        <time>1970-01-01T01:00:00Z</time>
      </trkpt>
      <trkpt lat="57.468937" lon="15.53755">
        <ele>199</ele>
        <time>1970-01-01T01:00:00Z</time>
      </trkpt>
      <trkpt lat="57.469005" lon="15.537398">
        <ele>199.091</ele>
        <time>1970-01-01T01:00:00Z</time>
      </trkpt>
      <trkpt lat="57.469052" lon="15.537272">
        <ele>199.182</ele>
        <time>1970-01-01T01:00:00Z</time>
      </trkpt>
      <trkpt lat="57.469135" lon="15.537175">
        <ele>199.273</ele>
        <time>1970-01-01T01:00:00Z</time>
      </trkpt>
      <trkpt lat="57.469211" lon="15.537081">
        <ele>199.545</ele>
        <time>1970-01-01T01:00:00Z</time>
      </trkpt>
      <trkpt lat="57.469302" lon="15.537038">
        <ele>199.818</ele>
        <time>1970-01-01T01:00:00Z</time>
      </trkpt>
      <trkpt lat="57.469386" lon="15.536987">
        <ele>200.091</ele>
        <time>1970-01-01T01:00:00Z</time>
      </trkpt>
      <trkpt lat="57.469474" lon="15.536952">
        <ele>200.364</ele>
        <time>1970-01-01T01:00:00Z</time>
      </trkpt>
      <trkpt lat="57.469561" lon="15.53694">
        <ele>200.545</ele>
        <time>1970-01-01T01:00:00Z</time>
      </trkpt>
      <trkpt lat="57.469655" lon="15.536911">
        <ele>200.727</ele>
        <time>1970-01-01T01:00:00Z</time>
      </trkpt>
      <trkpt lat="57.469747" lon="15.536863">
        <ele>200.818</ele>
        <time>1970-01-01T01:00:00Z</time>
      </trkpt>
      <trkpt lat="57.469849" lon="15.536779">
        <ele>200.909</ele>
        <time>1970-01-01T01:00:00Z</time>
      </trkpt>
      <trkpt lat="57.469948" lon="15.536779">
        <ele>201</ele>
        <time>1970-01-01T01:00:00Z</time>
      </trkpt>
      <trkpt lat="57.470045" lon="15.536799">
        <ele>201.091</ele>
        <time>1970-01-01T01:00:00Z</time>
      </trkpt>
      <trkpt lat="57.470133" lon="15.536811">
        <ele>201.182</ele>
        <time>1970-01-01T01:00:00Z</time>
      </trkpt>
      <trkpt lat="57.470232" lon="15.536849">
        <ele>201.182</ele>
        <time>1970-01-01T01:00:00Z</time>
      </trkpt>
      <trkpt lat="57.470328" lon="15.536896">
        <ele>201.182</ele>
        <time>1970-01-01T01:00:00Z</time>
      </trkpt>
      <trkpt lat="57.470422" lon="15.536913">
        <ele>201.182</ele>
        <time>1970-01-01T01:00:00Z</time>
      </trkpt>
      <trkpt lat="57.47051" lon="15.536932">
        <ele>201.182</ele>
        <time>1970-01-01T01:00:00Z</time>
      </trkpt>
      <trkpt lat="57.470593" lon="15.536944">
        <ele>201.364</ele>
        <time>1970-01-01T01:00:00Z</time>
      </trkpt>
      <trkpt lat="57.470678" lon="15.536945">
        <ele>201.545</ele>
        <time>1970-01-01T01:00:00Z</time>
      </trkpt>
      <trkpt lat="57.470774" lon="15.537002">
        <ele>201.727</ele>
        <time>1970-01-01T01:00:00Z</time>
      </trkpt>
      <trkpt lat="57.470867" lon="15.537028">
        <ele>201.909</ele>
        <time>1970-01-01T01:00:00Z</time>
      </trkpt>
      <trkpt lat="57.470968" lon="15.537021">
        <ele>202.091</ele>
        <time>1970-01-01T01:00:00Z</time>
      </trkpt>
      <trkpt lat="57.471068" lon="15.537054">
        <ele>202.273</ele>
        <time>1970-01-01T01:00:00Z</time>
      </trkpt>
      <trkpt lat="57.471177" lon="15.537065">
        <ele>202.455</ele>
        <time>1970-01-01T01:00:00Z</time>
      </trkpt>
      <trkpt lat="57.471277" lon="15.537143">
        <ele>202.636</ele>
        <time>1970-01-01T01:00:00Z</time>
      </trkpt>
      <trkpt lat="57.471366" lon="15.53714">
        <ele>202.818</ele>
        <time>1970-01-01T01:00:00Z</time>
      </trkpt>
      <trkpt lat="57.471444" lon="15.537217">
        <ele>202.818</ele>
        <time>1970-01-01T01:00:00Z</time>
      </trkpt>
      <trkpt lat="57.471515" lon="15.537299">
        <ele>202.818</ele>
        <time>1970-01-01T01:00:00Z</time>
      </trkpt>
      <trkpt lat="57.471609" lon="15.537358">
        <ele>202.727</ele>
        <time>1970-01-01T01:00:00Z</time>
      </trkpt>
      <trkpt lat="57.471701" lon="15.537381">
        <ele>202.636</ele>
        <time>1970-01-01T01:00:00Z</time>
      </trkpt>
      <trkpt lat="57.471795" lon="15.537391">
        <ele>202.545</ele>
        <time>1970-01-01T01:00:00Z</time>
      </trkpt>
      <trkpt lat="57.471883" lon="15.537344">
        <ele>202.455</ele>
        <time>1970-01-01T01:00:00Z</time>
      </trkpt>
      <trkpt lat="57.471972" lon="15.537336">
        <ele>202.364</ele>
        <time>1970-01-01T01:00:00Z</time>
      </trkpt>
      <trkpt lat="57.472075" lon="15.537345">
        <ele>202.273</ele>
        <time>1970-01-01T01:00:00Z</time>
      </trkpt>
      <trkpt lat="57.472171" lon="15.537358">
        <ele>202.273</ele>
        <time>1970-01-01T01:00:00Z</time>
      </trkpt>
      <trkpt lat="57.472251" lon="15.537387">
        <ele>202.273</ele>
        <time>1970-01-01T01:00:00Z</time>
      </trkpt>
      <trkpt lat="57.472341" lon="15.537482">
        <ele>202.273</ele>
        <time>1970-01-01T01:00:00Z</time>
      </trkpt>
      <trkpt lat="57.47242" lon="15.537521">
        <ele>202.364</ele>
        <time>1970-01-01T01:00:00Z</time>
      </trkpt>
      <trkpt lat="57.472515" lon="15.537548">
        <ele>202.545</ele>
        <time>1970-01-01T01:00:00Z</time>
      </trkpt>
      <trkpt lat="57.472594" lon="15.537598">
        <ele>202.727</ele>
        <time>1970-01-01T01:00:00Z</time>
      </trkpt>
      <trkpt lat="57.47269" lon="15.537689">
        <ele>202.909</ele>
        <time>1970-01-01T01:00:00Z</time>
      </trkpt>
      <trkpt lat="57.472774" lon="15.537771">
        <ele>203.091</ele>
        <time>1970-01-01T01:00:00Z</time>
      </trkpt>
      <trkpt lat="57.472857" lon="15.537859">
        <ele>203.182</ele>
        <time>1970-01-01T01:00:00Z</time>
      </trkpt>
      <trkpt lat="57.472937" lon="15.537915">
        <ele>203.273</ele>
        <time>1970-01-01T01:00:00Z</time>
      </trkpt>
      <trkpt lat="57.473026" lon="15.53802">
        <ele>203.364</ele>
        <time>1970-01-01T01:00:00Z</time>
      </trkpt>
      <trkpt lat="57.473108" lon="15.538101">
        <ele>203.273</ele>
        <time>1970-01-01T01:00:00Z</time>
      </trkpt>
      <trkpt lat="57.473197" lon="15.538168">
        <ele>203.091</ele>
        <time>1970-01-01T01:00:00Z</time>
      </trkpt>
      <trkpt lat="57.473297" lon="15.538216">
        <ele>202.818</ele>
        <time>1970-01-01T01:00:00Z</time>
      </trkpt>
      <trkpt lat="57.473376" lon="15.538259">
        <ele>202.455</ele>
        <time>1970-01-01T01:00:00Z</time>
      </trkpt>
      <trkpt lat="57.473485" lon="15.538287">
        <ele>202</ele>
        <time>1970-01-01T01:00:00Z</time>
      </trkpt>
      <trkpt lat="57.473571" lon="15.538289">
        <ele>201.455</ele>
        <time>1970-01-01T01:00:00Z</time>
      </trkpt>
      <trkpt lat="57.473662" lon="15.538307">
        <ele>200.909</ele>
        <time>1970-01-01T01:00:00Z</time>
      </trkpt>
      <trkpt lat="57.473766" lon="15.538352">
        <ele>200.364</ele>
        <time>1970-01-01T01:00:00Z</time>
      </trkpt>
      <trkpt lat="57.473851" lon="15.538406">
        <ele>199.909</ele>
        <time>1970-01-01T01:00:00Z</time>
      </trkpt>
      <trkpt lat="57.473925" lon="15.538473">
        <ele>199.455</ele>
        <time>1970-01-01T01:00:00Z</time>
      </trkpt>
      <trkpt lat="57.474014" lon="15.538565">
        <ele>199.091</ele>
        <time>1970-01-01T01:00:00Z</time>
      </trkpt>
      <trkpt lat="57.474104" lon="15.538653">
        <ele>198.818</ele>
        <time>1970-01-01T01:00:00Z</time>
      </trkpt>
      <trkpt lat="57.474172" lon="15.538753">
        <ele>198.636</ele>
        <time>1970-01-01T01:00:00Z</time>
      </trkpt>
      <trkpt lat="57.474257" lon="15.538793">
        <ele>198.545</ele>
        <time>1970-01-01T01:00:00Z</time>
      </trkpt>
      <trkpt lat="57.474345" lon="15.538904">
        <ele>198.545</ele>
        <time>1970-01-01T01:00:00Z</time>
      </trkpt>
      <trkpt lat="57.474417" lon="15.539018">
        <ele>198.455</ele>
        <time>1970-01-01T01:00:00Z</time>
      </trkpt>
      <trkpt lat="57.474484" lon="15.53912">
        <ele>198.455</ele>
        <time>1970-01-01T01:00:00Z</time>
      </trkpt>
      <trkpt lat="57.474559" lon="15.539204">
        <ele>198.455</ele>
        <time>1970-01-01T01:00:00Z</time>
      </trkpt>
      <trkpt lat="57.474639" lon="15.539275">
        <ele>198.455</ele>
        <time>1970-01-01T01:00:00Z</time>
      </trkpt>
      <trkpt lat="57.474722" lon="15.539316">
        <ele>198.455</ele>
        <time>1970-01-01T01:00:00Z</time>
      </trkpt>
      <trkpt lat="57.474809" lon="15.539355">
        <ele>198.455</ele>
        <time>1970-01-01T01:00:00Z</time>
      </trkpt>
      <trkpt lat="57.474912" lon="15.539406">
        <ele>198.455</ele>
        <time>1970-01-01T01:00:00Z</time>
      </trkpt>
      <trkpt lat="57.475006" lon="15.539477">
        <ele>198.455</ele>
        <time>1970-01-01T01:00:00Z</time>
      </trkpt>
      <trkpt lat="57.47509" lon="15.539507">
        <ele>198.455</ele>
        <time>1970-01-01T01:00:00Z</time>
      </trkpt>
      <trkpt lat="57.475101" lon="15.539667">
        <ele>198.455</ele>
        <time>1970-01-01T01:00:00Z</time>
      </trkpt>
      <trkpt lat="57.475103" lon="15.539853">
        <ele>198.455</ele>
        <time>1970-01-01T01:00:00Z</time>
      </trkpt>
      <trkpt lat="57.475094" lon="15.540006">
        <ele>198.545</ele>
        <time>1970-01-01T01:00:00Z</time>
      </trkpt>
      <trkpt lat="57.475053" lon="15.54019">
        <ele>198.545</ele>
        <time>1970-01-01T01:00:00Z</time>
      </trkpt>
      <trkpt lat="57.475032" lon="15.540353">
        <ele>198.545</ele>
        <time>1970-01-01T01:00:00Z</time>
      </trkpt>
      <trkpt lat="57.475019" lon="15.540536">
        <ele>198.545</ele>
        <time>1970-01-01T01:00:00Z</time>
      </trkpt>
      <trkpt lat="57.474979" lon="15.540688">
        <ele>198.455</ele>
        <time>1970-01-01T01:00:00Z</time>
      </trkpt>
      <trkpt lat="57.474946" lon="15.540862">
        <ele>198.364</ele>
        <time>1970-01-01T01:00:00Z</time>
      </trkpt>
      <trkpt lat="57.474921" lon="15.541013">
        <ele>198.182</ele>
        <time>1970-01-01T01:00:00Z</time>
      </trkpt>
      <trkpt lat="57.474899" lon="15.541202">
        <ele>198</ele>
        <time>1970-01-01T01:00:00Z</time>
      </trkpt>
      <trkpt lat="57.4749" lon="15.54138">
        <ele>197.818</ele>
        <time>1970-01-01T01:00:00Z</time>
      </trkpt>
      <trkpt lat="57.47489" lon="15.541548">
        <ele>197.636</ele>
        <time>1970-01-01T01:00:00Z</time>
      </trkpt>
      <trkpt lat="57.474847" lon="15.541719">
        <ele>197.545</ele>
        <time>1970-01-01T01:00:00Z</time>
      </trkpt>
      <trkpt lat="57.474812" lon="15.541872">
        <ele>197.455</ele>
        <time>1970-01-01T01:00:00Z</time>
      </trkpt>
      <trkpt lat="57.47479" lon="15.542055">
        <ele>197.455</ele>
        <time>1970-01-01T01:00:00Z</time>
      </trkpt>
      <trkpt lat="57.474779" lon="15.542204">
        <ele>197.455</ele>
        <time>1970-01-01T01:00:00Z</time>
      </trkpt>
      <trkpt lat="57.474782" lon="15.542367">
        <ele>197.545</ele>
        <time>1970-01-01T01:00:00Z</time>
      </trkpt>
      <trkpt lat="57.474784" lon="15.542543">
        <ele>197.727</ele>
        <time>1970-01-01T01:00:00Z</time>
      </trkpt>
      <trkpt lat="57.474766" lon="15.542728">
        <ele>198</ele>
        <time>1970-01-01T01:00:00Z</time>
      </trkpt>
      <trkpt lat="57.474752" lon="15.542911">
        <ele>198.273</ele>
        <time>1970-01-01T01:00:00Z</time>
      </trkpt>
      <trkpt lat="57.474722" lon="15.543058">
        <ele>198.636</ele>
        <time>1970-01-01T01:00:00Z</time>
      </trkpt>
      <trkpt lat="57.474721" lon="15.54324">
        <ele>199</ele>
        <time>1970-01-01T01:00:00Z</time>
      </trkpt>
      <trkpt lat="57.4747" lon="15.543392">
        <ele>199.364</ele>
        <time>1970-01-01T01:00:00Z</time>
      </trkpt>
      <trkpt lat="57.474717" lon="15.543575">
        <ele>199.636</ele>
        <time>1970-01-01T01:00:00Z</time>
      </trkpt>
      <trkpt lat="57.474721" lon="15.54373">
        <ele>199.909</ele>
        <time>1970-01-01T01:00:00Z</time>
      </trkpt>
      <trkpt lat="57.47472" lon="15.543914">
        <ele>200.182</ele>
        <time>1970-01-01T01:00:00Z</time>
      </trkpt>
      <trkpt lat="57.474703" lon="15.544093">
        <ele>200.545</ele>
        <time>1970-01-01T01:00:00Z</time>
      </trkpt>
      <trkpt lat="57.474716" lon="15.54425">
        <ele>200.909</ele>
        <time>1970-01-01T01:00:00Z</time>
      </trkpt>
      <trkpt lat="57.474707" lon="15.544403">
        <ele>201.273</ele>
        <time>1970-01-01T01:00:00Z</time>
      </trkpt>
      <trkpt lat="57.474716" lon="15.544589">
        <ele>201.636</ele>
        <time>1970-01-01T01:00:00Z</time>
      </trkpt>
      <trkpt lat="57.474724" lon="15.544744">
        <ele>202.091</ele>
        <time>1970-01-01T01:00:00Z</time>
      </trkpt>
      <trkpt lat="57.474767" lon="15.54492">
        <ele>202.455</ele>
        <time>1970-01-01T01:00:00Z</time>
      </trkpt>
      <trkpt lat="57.474798" lon="15.545102">
        <ele>202.818</ele>
        <time>1970-01-01T01:00:00Z</time>
      </trkpt>
      <trkpt lat="57.474871" lon="15.545226">
        <ele>203.273</ele>
        <time>1970-01-01T01:00:00Z</time>
      </trkpt>
      <trkpt lat="57.474886" lon="15.545384">
        <ele>203.727</ele>
        <time>1970-01-01T01:00:00Z</time>
      </trkpt>
      <trkpt lat="57.474886" lon="15.545541">
        <ele>204.182</ele>
        <time>1970-01-01T01:00:00Z</time>
      </trkpt>
      <trkpt lat="57.474907" lon="15.545723">
        <ele>204.636</ele>
        <time>1970-01-01T01:00:00Z</time>
      </trkpt>
      <trkpt lat="57.474921" lon="15.545891">
        <ele>205</ele>
        <time>1970-01-01T01:00:00Z</time>
      </trkpt>
      <trkpt lat="57.474956" lon="15.546042">
        <ele>205.364</ele>
        <time>1970-01-01T01:00:00Z</time>
      </trkpt>
      <trkpt lat="57.474959" lon="15.546222">
        <ele>205.818</ele>
        <time>1970-01-01T01:00:00Z</time>
      </trkpt>
      <trkpt lat="57.474959" lon="15.546401">
        <ele>206.182</ele>
        <time>1970-01-01T01:00:00Z</time>
      </trkpt>
      <trkpt lat="57.47496" lon="15.546552">
        <ele>206.455</ele>
        <time>1970-01-01T01:00:00Z</time>
      </trkpt>
      <trkpt lat="57.474996" lon="15.546735">
        <ele>206.727</ele>
        <time>1970-01-01T01:00:00Z</time>
      </trkpt>
      <trkpt lat="57.474994" lon="15.546927">
        <ele>207</ele>
        <time>1970-01-01T01:00:00Z</time>
      </trkpt>
      <trkpt lat="57.475023" lon="15.547089">
        <ele>207.273</ele>
        <time>1970-01-01T01:00:00Z</time>
      </trkpt>
      <trkpt lat="57.475072" lon="15.547253">
        <ele>207.636</ele>
        <time>1970-01-01T01:00:00Z</time>
      </trkpt>
      <trkpt lat="57.475152" lon="15.547297">
        <ele>208</ele>
        <time>1970-01-01T01:00:00Z</time>
      </trkpt>
      <trkpt lat="57.475246" lon="15.547254">
        <ele>208.364</ele>
        <time>1970-01-01T01:00:00Z</time>
      </trkpt>
      <trkpt lat="57.475312" lon="15.547142">
        <ele>208.727</ele>
        <time>1970-01-01T01:00:00Z</time>
      </trkpt>
      <trkpt lat="57.475362" lon="15.547013">
        <ele>209</ele>
        <time>1970-01-01T01:00:00Z</time>
      </trkpt>
      <trkpt lat="57.475384" lon="15.546839">
        <ele>209.273</ele>
        <time>1970-01-01T01:00:00Z</time>
      </trkpt>
      <trkpt lat="57.47541" lon="15.546675">
        <ele>209.455</ele>
        <time>1970-01-01T01:00:00Z</time>
      </trkpt>
      <trkpt lat="57.475434" lon="15.546527">
        <ele>209.636</ele>
        <time>1970-01-01T01:00:00Z</time>
      </trkpt>
      <trkpt lat="57.475456" lon="15.546382">
        <ele>209.818</ele>
        <time>1970-01-01T01:00:00Z</time>
      </trkpt>
      <trkpt lat="57.475494" lon="15.546238">
        <ele>210</ele>
        <time>1970-01-01T01:00:00Z</time>
      </trkpt>
      <trkpt lat="57.475527" lon="15.546062">
        <ele>210.091</ele>
        <time>1970-01-01T01:00:00Z</time>
      </trkpt>
      <trkpt lat="57.475536" lon="15.54591">
        <ele>210.091</ele>
        <time>1970-01-01T01:00:00Z</time>
      </trkpt>
      <trkpt lat="57.47557" lon="15.545755">
        <ele>210</ele>
        <time>1970-01-01T01:00:00Z</time>
      </trkpt>
      <trkpt lat="57.475579" lon="15.545601">
        <ele>209.909</ele>
        <time>1970-01-01T01:00:00Z</time>
      </trkpt>
      <trkpt lat="57.475599" lon="15.545446">
        <ele>209.818</ele>
        <time>1970-01-01T01:00:00Z</time>
      </trkpt>
      <trkpt lat="57.475613" lon="15.545286">
        <ele>209.727</ele>
        <time>1970-01-01T01:00:00Z</time>
      </trkpt>
      <trkpt lat="57.475629" lon="15.545092">
        <ele>209.545</ele>
        <time>1970-01-01T01:00:00Z</time>
      </trkpt>
      <trkpt lat="57.475602" lon="15.544946">
        <ele>209.455</ele>
        <time>1970-01-01T01:00:00Z</time>
      </trkpt>
      <trkpt lat="57.475592" lon="15.544794">
        <ele>209.364</ele>
        <time>1970-01-01T01:00:00Z</time>
      </trkpt>
      <trkpt lat="57.475618" lon="15.544644">
        <ele>209.273</ele>
        <time>1970-01-01T01:00:00Z</time>
      </trkpt>
      <trkpt lat="57.475642" lon="15.544468">
        <ele>209.273</ele>
        <time>1970-01-01T01:00:00Z</time>
      </trkpt>
      <trkpt lat="57.475682" lon="15.544311">
        <ele>209.273</ele>
        <time>1970-01-01T01:00:00Z</time>
      </trkpt>
      <trkpt lat="57.47575" lon="15.544163">
        <ele>209.364</ele>
        <time>1970-01-01T01:00:00Z</time>
      </trkpt>
      <trkpt lat="57.475813" lon="15.54401">
        <ele>209.545</ele>
        <time>1970-01-01T01:00:00Z</time>
      </trkpt>
      <trkpt lat="57.475872" lon="15.543883">
        <ele>209.818</ele>
        <time>1970-01-01T01:00:00Z</time>
      </trkpt>
      <trkpt lat="57.475946" lon="15.543741">
        <ele>210.091</ele>
        <time>1970-01-01T01:00:00Z</time>
      </trkpt>
      <trkpt lat="57.476011" lon="15.543638">
        <ele>210.364</ele>
        <time>1970-01-01T01:00:00Z</time>
      </trkpt>
      <trkpt lat="57.476086" lon="15.54351">
        <ele>210.636</ele>
        <time>1970-01-01T01:00:00Z</time>
      </trkpt>
      <trkpt lat="57.476172" lon="15.543404">
        <ele>210.909</ele>
        <time>1970-01-01T01:00:00Z</time>
      </trkpt>
      <trkpt lat="57.476254" lon="15.543297">
        <ele>211.182</ele>
        <time>1970-01-01T01:00:00Z</time>
      </trkpt>
      <trkpt lat="57.476333" lon="15.54323">
        <ele>211.455</ele>
        <time>1970-01-01T01:00:00Z</time>
      </trkpt>
      <trkpt lat="57.476405" lon="15.543156">
        <ele>211.545</ele>
        <time>1970-01-01T01:00:00Z</time>
      </trkpt>
      <trkpt lat="57.476468" lon="15.543055">
        <ele>211.636</ele>
        <time>1970-01-01T01:00:00Z</time>
      </trkpt>
      <trkpt lat="57.476557" lon="15.542995">
        <ele>211.545</ele>
        <time>1970-01-01T01:00:00Z</time>
      </trkpt>
      <trkpt lat="57.476646" lon="15.54292">
        <ele>211.455</ele>
        <time>1970-01-01T01:00:00Z</time>
      </trkpt>
      <trkpt lat="57.476735" lon="15.542859">
        <ele>211.273</ele>
        <time>1970-01-01T01:00:00Z</time>
      </trkpt>
      <trkpt lat="57.476809" lon="15.542797">
        <ele>211.091</ele>
        <time>1970-01-01T01:00:00Z</time>
      </trkpt>
      <trkpt lat="57.476904" lon="15.542726">
        <ele>210.909</ele>
        <time>1970-01-01T01:00:00Z</time>
      </trkpt>
      <trkpt lat="57.477005" lon="15.542649">
        <ele>210.727</ele>
        <time>1970-01-01T01:00:00Z</time>
      </trkpt>
      <trkpt lat="57.477085" lon="15.542595">
        <ele>210.545</ele>
        <time>1970-01-01T01:00:00Z</time>
      </trkpt>
      <trkpt lat="57.477166" lon="15.542544">
        <ele>210.273</ele>
        <time>1970-01-01T01:00:00Z</time>
      </trkpt>
      <trkpt lat="57.477253" lon="15.542477">
        <ele>209.909</ele>
        <time>1970-01-01T01:00:00Z</time>
      </trkpt>
      <trkpt lat="57.477322" lon="15.542393">
        <ele>209.545</ele>
        <time>1970-01-01T01:00:00Z</time>
      </trkpt>
      <trkpt lat="57.477397" lon="15.542321">
        <ele>209.182</ele>
        <time>1970-01-01T01:00:00Z</time>
      </trkpt>
      <trkpt lat="57.477487" lon="15.542211">
        <ele>208.909</ele>
        <time>1970-01-01T01:00:00Z</time>
      </trkpt>
      <trkpt lat="57.477556" lon="15.542108">
        <ele>208.545</ele>
        <time>1970-01-01T01:00:00Z</time>
      </trkpt>
      <trkpt lat="57.477641" lon="15.541991">
        <ele>208.091</ele>
        <time>1970-01-01T01:00:00Z</time>
      </trkpt>
      <trkpt lat="57.477724" lon="15.541874">
        <ele>207.636</ele>
        <time>1970-01-01T01:00:00Z</time>
      </trkpt>
      <trkpt lat="57.477802" lon="15.54176">
        <ele>207.182</ele>
        <time>1970-01-01T01:00:00Z</time>
      </trkpt>
      <trkpt lat="57.477884" lon="15.541682">
        <ele>206.727</ele>
        <time>1970-01-01T01:00:00Z</time>
      </trkpt>
      <trkpt lat="57.477975" lon="15.541569">
        <ele>206.273</ele>
        <time>1970-01-01T01:00:00Z</time>
      </trkpt>
      <trkpt lat="57.478053" lon="15.54146">
        <ele>205.909</ele>
        <time>1970-01-01T01:00:00Z</time>
      </trkpt>
      <trkpt lat="57.478146" lon="15.541355">
        <ele>205.636</ele>
        <time>1970-01-01T01:00:00Z</time>
      </trkpt>
      <trkpt lat="57.478237" lon="15.54126">
        <ele>205.364</ele>
        <time>1970-01-01T01:00:00Z</time>
      </trkpt>
      <trkpt lat="57.478319" lon="15.541145">
        <ele>205.091</ele>
        <time>1970-01-01T01:00:00Z</time>
      </trkpt>
      <trkpt lat="57.478387" lon="15.541062">
        <ele>204.909</ele>
        <time>1970-01-01T01:00:00Z</time>
      </trkpt>
      <trkpt lat="57.478451" lon="15.540938">
        <ele>204.818</ele>
        <time>1970-01-01T01:00:00Z</time>
      </trkpt>
      <trkpt lat="57.478517" lon="15.540826">
        <ele>204.818</ele>
        <time>1970-01-01T01:00:00Z</time>
      </trkpt>
      <trkpt lat="57.478573" lon="15.540715">
        <ele>204.818</ele>
        <time>1970-01-01T01:00:00Z</time>
      </trkpt>
      <trkpt lat="57.47864" lon="15.540612">
        <ele>204.818</ele>
        <time>1970-01-01T01:00:00Z</time>
      </trkpt>
      <trkpt lat="57.478708" lon="15.540519">
        <ele>204.909</ele>
        <time>1970-01-01T01:00:00Z</time>
      </trkpt>
      <trkpt lat="57.478784" lon="15.540436">
        <ele>205</ele>
        <time>1970-01-01T01:00:00Z</time>
      </trkpt>
      <trkpt lat="57.478857" lon="15.540359">
        <ele>205.091</ele>
        <time>1970-01-01T01:00:00Z</time>
      </trkpt>
      <trkpt lat="57.478924" lon="15.54026">
        <ele>205.182</ele>
        <time>1970-01-01T01:00:00Z</time>
      </trkpt>
      <trkpt lat="57.479003" lon="15.540165">
        <ele>205.364</ele>
        <time>1970-01-01T01:00:00Z</time>
      </trkpt>
      <trkpt lat="57.479069" lon="15.54007">
        <ele>205.545</ele>
        <time>1970-01-01T01:00:00Z</time>
      </trkpt>
      <trkpt lat="57.479129" lon="15.539942">
        <ele>205.636</ele>
        <time>1970-01-01T01:00:00Z</time>
      </trkpt>
      <trkpt lat="57.479202" lon="15.539823">
        <ele>205.727</ele>
        <time>1970-01-01T01:00:00Z</time>
      </trkpt>
      <trkpt lat="57.479284" lon="15.539718">
        <ele>205.818</ele>
        <time>1970-01-01T01:00:00Z</time>
      </trkpt>
      <trkpt lat="57.479365" lon="15.539606">
        <ele>205.909</ele>
        <time>1970-01-01T01:00:00Z</time>
      </trkpt>
      <trkpt lat="57.479457" lon="15.539497">
        <ele>206</ele>
        <time>1970-01-01T01:00:00Z</time>
      </trkpt>
      <trkpt lat="57.479536" lon="15.539373">
        <ele>206</ele>
        <time>1970-01-01T01:00:00Z</time>
      </trkpt>
      <trkpt lat="57.479619" lon="15.539266">
        <ele>206</ele>
        <time>1970-01-01T01:00:00Z</time>
      </trkpt>
      <trkpt lat="57.479735" lon="15.539214">
        <ele>206</ele>
        <time>1970-01-01T01:00:00Z</time>
      </trkpt>
      <trkpt lat="57.479838" lon="15.539164">
        <ele>206</ele>
        <time>1970-01-01T01:00:00Z</time>
      </trkpt>
      <trkpt lat="57.479924" lon="15.539097">
        <ele>206</ele>
        <time>1970-01-01T01:00:00Z</time>
      </trkpt>
      <trkpt lat="57.480024" lon="15.539035">
        <ele>206</ele>
        <time>1970-01-01T01:00:00Z</time>
      </trkpt>
      <trkpt lat="57.480099" lon="15.538975">
        <ele>206</ele>
        <time>1970-01-01T01:00:00Z</time>
      </trkpt>
      <trkpt lat="57.480176" lon="15.538928">
        <ele>206</ele>
        <time>1970-01-01T01:00:00Z</time>
      </trkpt>
      <trkpt lat="57.48026" lon="15.538889">
        <ele>206</ele>
        <time>1970-01-01T01:00:00Z</time>
      </trkpt>
      <trkpt lat="57.480364" lon="15.538835">
        <ele>206</ele>
        <time>1970-01-01T01:00:00Z</time>
      </trkpt>
      <trkpt lat="57.480466" lon="15.538805">
        <ele>205.909</ele>
        <time>1970-01-01T01:00:00Z</time>
      </trkpt>
      <trkpt lat="57.480563" lon="15.538764">
        <ele>205.727</ele>
        <time>1970-01-01T01:00:00Z</time>
      </trkpt>
      <trkpt lat="57.480652" lon="15.538704">
        <ele>205.455</ele>
        <time>1970-01-01T01:00:00Z</time>
      </trkpt>
      <trkpt lat="57.480737" lon="15.538626">
        <ele>205.182</ele>
        <time>1970-01-01T01:00:00Z</time>
      </trkpt>
      <trkpt lat="57.480826" lon="15.538571">
        <ele>204.909</ele>
        <time>1970-01-01T01:00:00Z</time>
      </trkpt>
      <trkpt lat="57.480904" lon="15.53853">
        <ele>204.545</ele>
        <time>1970-01-01T01:00:00Z</time>
      </trkpt>
      <trkpt lat="57.480971" lon="15.538442">
        <ele>204.182</ele>
        <time>1970-01-01T01:00:00Z</time>
      </trkpt>
      <trkpt lat="57.481052" lon="15.538359">
        <ele>203.818</ele>
        <time>1970-01-01T01:00:00Z</time>
      </trkpt>
      <trkpt lat="57.481138" lon="15.538279">
        <ele>203.364</ele>
        <time>1970-01-01T01:00:00Z</time>
      </trkpt>
      <trkpt lat="57.481224" lon="15.538219">
        <ele>202.818</ele>
        <time>1970-01-01T01:00:00Z</time>
      </trkpt>
      <trkpt lat="57.481303" lon="15.53814">
        <ele>202.273</ele>
        <time>1970-01-01T01:00:00Z</time>
      </trkpt>
      <trkpt lat="57.481378" lon="15.538067">
        <ele>201.818</ele>
        <time>1970-01-01T01:00:00Z</time>
      </trkpt>
      <trkpt lat="57.481466" lon="15.537974">
        <ele>201.364</ele>
        <time>1970-01-01T01:00:00Z</time>
      </trkpt>
      <trkpt lat="57.481561" lon="15.537925">
        <ele>201</ele>
        <time>1970-01-01T01:00:00Z</time>
      </trkpt>
      <trkpt lat="57.481665" lon="15.537894">
        <ele>200.636</ele>
        <time>1970-01-01T01:00:00Z</time>
      </trkpt>
      <trkpt lat="57.481759" lon="15.537893">
        <ele>200.364</ele>
        <time>1970-01-01T01:00:00Z</time>
      </trkpt>
      <trkpt lat="57.481846" lon="15.537839">
        <ele>200.182</ele>
        <time>1970-01-01T01:00:00Z</time>
      </trkpt>
      <trkpt lat="57.481925" lon="15.537784">
        <ele>200</ele>
        <time>1970-01-01T01:00:00Z</time>
      </trkpt>
      <trkpt lat="57.482024" lon="15.537722">
        <ele>199.818</ele>
        <time>1970-01-01T01:00:00Z</time>
      </trkpt>
      <trkpt lat="57.482129" lon="15.537674">
        <ele>199.818</ele>
        <time>1970-01-01T01:00:00Z</time>
      </trkpt>
      <trkpt lat="57.482222" lon="15.537632">
        <ele>199.909</ele>
        <time>1970-01-01T01:00:00Z</time>
      </trkpt>
      <trkpt lat="57.482312" lon="15.537571">
        <ele>200.091</ele>
        <time>1970-01-01T01:00:00Z</time>
      </trkpt>
      <trkpt lat="57.482393" lon="15.537499">
        <ele>200.273</ele>
        <time>1970-01-01T01:00:00Z</time>
      </trkpt>
      <trkpt lat="57.482492" lon="15.537411">
        <ele>200.545</ele>
        <time>1970-01-01T01:00:00Z</time>
      </trkpt>
      <trkpt lat="57.482556" lon="15.53732">
        <ele>200.727</ele>
        <time>1970-01-01T01:00:00Z</time>
      </trkpt>
      <trkpt lat="57.482602" lon="15.537169">
        <ele>200.909</ele>
        <time>1970-01-01T01:00:00Z</time>
      </trkpt>
      <trkpt lat="57.482674" lon="15.537026">
        <ele>201</ele>
        <time>1970-01-01T01:00:00Z</time>
      </trkpt>
      <trkpt lat="57.482758" lon="15.536919">
        <ele>201.091</ele>
        <time>1970-01-01T01:00:00Z</time>
      </trkpt>
      <trkpt lat="57.482818" lon="15.536799">
        <ele>201.182</ele>
        <time>1970-01-01T01:00:00Z</time>
      </trkpt>
      <trkpt lat="57.482879" lon="15.536697">
        <ele>201.273</ele>
        <time>1970-01-01T01:00:00Z</time>
      </trkpt>
      <trkpt lat="57.482941" lon="15.53659">
        <ele>201.273</ele>
        <time>1970-01-01T01:00:00Z</time>
      </trkpt>
      <trkpt lat="57.483002" lon="15.536489">
        <ele>201.364</ele>
        <time>1970-01-01T01:00:00Z</time>
      </trkpt>
      <trkpt lat="57.483065" lon="15.536389">
        <ele>201.364</ele>
        <time>1970-01-01T01:00:00Z</time>
      </trkpt>
      <trkpt lat="57.483129" lon="15.536286">
        <ele>201.455</ele>
        <time>1970-01-01T01:00:00Z</time>
      </trkpt>
      <trkpt lat="57.483203" lon="15.536184">
        <ele>201.545</ele>
        <time>1970-01-01T01:00:00Z</time>
      </trkpt>
      <trkpt lat="57.483289" lon="15.536067">
        <ele>201.727</ele>
        <time>1970-01-01T01:00:00Z</time>
      </trkpt>
      <trkpt lat="57.48336" lon="15.535972">
        <ele>201.909</ele>
        <time>1970-01-01T01:00:00Z</time>
      </trkpt>
      <trkpt lat="57.483427" lon="15.535884">
        <ele>202.091</ele>
        <time>1970-01-01T01:00:00Z</time>
      </trkpt>
      <trkpt lat="57.483499" lon="15.535774">
        <ele>202.273</ele>
        <time>1970-01-01T01:00:00Z</time>
      </trkpt>
      <trkpt lat="57.48357" lon="15.535672">
        <ele>202.455</ele>
        <time>1970-01-01T01:00:00Z</time>
      </trkpt>
      <trkpt lat="57.483663" lon="15.535676">
        <ele>202.636</ele>
        <time>1970-01-01T01:00:00Z</time>
      </trkpt>
      <trkpt lat="57.483738" lon="15.535611">
        <ele>202.909</ele>
        <time>1970-01-01T01:00:00Z</time>
      </trkpt>
      <trkpt lat="57.483792" lon="15.535486">
        <ele>203.091</ele>
        <time>1970-01-01T01:00:00Z</time>
      </trkpt>
      <trkpt lat="57.483853" lon="15.535376">
        <ele>203.273</ele>
        <time>1970-01-01T01:00:00Z</time>
      </trkpt>
      <trkpt lat="57.483932" lon="15.535281">
        <ele>203.364</ele>
        <time>1970-01-01T01:00:00Z</time>
      </trkpt>
      <trkpt lat="57.484009" lon="15.535234">
        <ele>203.455</ele>
        <time>1970-01-01T01:00:00Z</time>
      </trkpt>
      <trkpt lat="57.484101" lon="15.535191">
        <ele>203.545</ele>
        <time>1970-01-01T01:00:00Z</time>
      </trkpt>
      <trkpt lat="57.484195" lon="15.535135">
        <ele>203.545</ele>
        <time>1970-01-01T01:00:00Z</time>
      </trkpt>
      <trkpt lat="57.484284" lon="15.535057">
        <ele>203.545</ele>
        <time>1970-01-01T01:00:00Z</time>
      </trkpt>
      <trkpt lat="57.484361" lon="15.534995">
        <ele>203.545</ele>
        <time>1970-01-01T01:00:00Z</time>
      </trkpt>
      <trkpt lat="57.484453" lon="15.534979">
        <ele>203.545</ele>
        <time>1970-01-01T01:00:00Z</time>
      </trkpt>
      <trkpt lat="57.484538" lon="15.534975">
        <ele>203.545</ele>
        <time>1970-01-01T01:00:00Z</time>
      </trkpt>
      <trkpt lat="57.484624" lon="15.534978">
        <ele>203.455</ele>
        <time>1970-01-01T01:00:00Z</time>
      </trkpt>
      <trkpt lat="57.484708" lon="15.534962">
        <ele>203.364</ele>
        <time>1970-01-01T01:00:00Z</time>
      </trkpt>
      <trkpt lat="57.484806" lon="15.534948">
        <ele>203.273</ele>
        <time>1970-01-01T01:00:00Z</time>
      </trkpt>
      <trkpt lat="57.484908" lon="15.534922">
        <ele>203.182</ele>
        <time>1970-01-01T01:00:00Z</time>
      </trkpt>
      <trkpt lat="57.484998" lon="15.534924">
        <ele>203</ele>
        <time>1970-01-01T01:00:00Z</time>
      </trkpt>
      <trkpt lat="57.485084" lon="15.534943">
        <ele>202.818</ele>
        <time>1970-01-01T01:00:00Z</time>
      </trkpt>
      <trkpt lat="57.485167" lon="15.534933">
        <ele>202.727</ele>
        <time>1970-01-01T01:00:00Z</time>
      </trkpt>
      <trkpt lat="57.485252" lon="15.534971">
        <ele>202.636</ele>
        <time>1970-01-01T01:00:00Z</time>
      </trkpt>
      <trkpt lat="57.485353" lon="15.534956">
        <ele>202.545</ele>
        <time>1970-01-01T01:00:00Z</time>
      </trkpt>
      <trkpt lat="57.485431" lon="15.534906">
        <ele>202.455</ele>
        <time>1970-01-01T01:00:00Z</time>
      </trkpt>
      <trkpt lat="57.485508" lon="15.534851">
        <ele>202.364</ele>
        <time>1970-01-01T01:00:00Z</time>
      </trkpt>
      <trkpt lat="57.485608" lon="15.534837">
        <ele>202.273</ele>
        <time>1970-01-01T01:00:00Z</time>
      </trkpt>
      <trkpt lat="57.485709" lon="15.534831">
        <ele>202.182</ele>
        <time>1970-01-01T01:00:00Z</time>
      </trkpt>
      <trkpt lat="57.485813" lon="15.534801">
        <ele>202.182</ele>
        <time>1970-01-01T01:00:00Z</time>
      </trkpt>
      <trkpt lat="57.485896" lon="15.534784">
        <ele>202.182</ele>
        <time>1970-01-01T01:00:00Z</time>
      </trkpt>
      <trkpt lat="57.485976" lon="15.534748">
        <ele>202.273</ele>
        <time>1970-01-01T01:00:00Z</time>
      </trkpt>
      <trkpt lat="57.486077" lon="15.534685">
        <ele>202.364</ele>
        <time>1970-01-01T01:00:00Z</time>
      </trkpt>
      <trkpt lat="57.486175" lon="15.534635">
        <ele>202.455</ele>
        <time>1970-01-01T01:00:00Z</time>
      </trkpt>
      <trkpt lat="57.486272" lon="15.534624">
        <ele>202.455</ele>
        <time>1970-01-01T01:00:00Z</time>
      </trkpt>
      <trkpt lat="57.486366" lon="15.534659">
        <ele>202.455</ele>
        <time>1970-01-01T01:00:00Z</time>
      </trkpt>
      <trkpt lat="57.486462" lon="15.53468">
        <ele>202.364</ele>
        <time>1970-01-01T01:00:00Z</time>
      </trkpt>
      <trkpt lat="57.486556" lon="15.534727">
        <ele>202.273</ele>
        <time>1970-01-01T01:00:00Z</time>
      </trkpt>
      <trkpt lat="57.486642" lon="15.534773">
        <ele>202.182</ele>
        <time>1970-01-01T01:00:00Z</time>
      </trkpt>
      <trkpt lat="57.48672" lon="15.534837">
        <ele>202</ele>
        <time>1970-01-01T01:00:00Z</time>
      </trkpt>
      <trkpt lat="57.486798" lon="15.534906">
        <ele>201.818</ele>
        <time>1970-01-01T01:00:00Z</time>
      </trkpt>
      <trkpt lat="57.486881" lon="15.534969">
        <ele>201.636</ele>
        <time>1970-01-01T01:00:00Z</time>
      </trkpt>
      <trkpt lat="57.486952" lon="15.535063">
        <ele>201.545</ele>
        <time>1970-01-01T01:00:00Z</time>
      </trkpt>
      <trkpt lat="57.487029" lon="15.535126">
        <ele>201.364</ele>
        <time>1970-01-01T01:00:00Z</time>
      </trkpt>
      <trkpt lat="57.487108" lon="15.535221">
        <ele>201.182</ele>
        <time>1970-01-01T01:00:00Z</time>
      </trkpt>
      <trkpt lat="57.487176" lon="15.535352">
        <ele>201.091</ele>
        <time>1970-01-01T01:00:00Z</time>
      </trkpt>
      <trkpt lat="57.487244" lon="15.535437">
        <ele>201</ele>
        <time>1970-01-01T01:00:00Z</time>
      </trkpt>
      <trkpt lat="57.487325" lon="15.535535">
        <ele>201</ele>
        <time>1970-01-01T01:00:00Z</time>
      </trkpt>
      <trkpt lat="57.487426" lon="15.535592">
        <ele>201</ele>
        <time>1970-01-01T01:00:00Z</time>
      </trkpt>
      <trkpt lat="57.487525" lon="15.535669">
        <ele>201.091</ele>
        <time>1970-01-01T01:00:00Z</time>
      </trkpt>
      <trkpt lat="57.487626" lon="15.535735">
        <ele>201.273</ele>
        <time>1970-01-01T01:00:00Z</time>
      </trkpt>
      <trkpt lat="57.487722" lon="15.535804">
        <ele>201.364</ele>
        <time>1970-01-01T01:00:00Z</time>
      </trkpt>
      <trkpt lat="57.487813" lon="15.535887">
        <ele>201.545</ele>
        <time>1970-01-01T01:00:00Z</time>
      </trkpt>
      <trkpt lat="57.487898" lon="15.53595">
        <ele>201.636</ele>
        <time>1970-01-01T01:00:00Z</time>
      </trkpt>
      <trkpt lat="57.487979" lon="15.535999">
        <ele>201.818</ele>
        <time>1970-01-01T01:00:00Z</time>
      </trkpt>
      <trkpt lat="57.488056" lon="15.53605">
        <ele>202</ele>
        <time>1970-01-01T01:00:00Z</time>
      </trkpt>
      <trkpt lat="57.488134" lon="15.536131">
        <ele>202.182</ele>
        <time>1970-01-01T01:00:00Z</time>
      </trkpt>
      <trkpt lat="57.488219" lon="15.536154">
        <ele>202.364</ele>
        <time>1970-01-01T01:00:00Z</time>
      </trkpt>
      <trkpt lat="57.488313" lon="15.536198">
        <ele>202.545</ele>
        <time>1970-01-01T01:00:00Z</time>
      </trkpt>
      <trkpt lat="57.488396" lon="15.536235">
        <ele>202.727</ele>
        <time>1970-01-01T01:00:00Z</time>
      </trkpt>
      <trkpt lat="57.48848" lon="15.53628">
        <ele>202.818</ele>
        <time>1970-01-01T01:00:00Z</time>
      </trkpt>
      <trkpt lat="57.488562" lon="15.536303">
        <ele>202.909</ele>
        <time>1970-01-01T01:00:00Z</time>
      </trkpt>
      <trkpt lat="57.488645" lon="15.536365">
        <ele>203</ele>
        <time>1970-01-01T01:00:00Z</time>
      </trkpt>
      <trkpt lat="57.488741" lon="15.536446">
        <ele>203</ele>
        <time>1970-01-01T01:00:00Z</time>
      </trkpt>
      <trkpt lat="57.488838" lon="15.536521">
        <ele>203</ele>
        <time>1970-01-01T01:00:00Z</time>
      </trkpt>
      <trkpt lat="57.488928" lon="15.536605">
        <ele>203</ele>
        <time>1970-01-01T01:00:00Z</time>
      </trkpt>
      <trkpt lat="57.489012" lon="15.536713">
        <ele>202.909</ele>
        <time>1970-01-01T01:00:00Z</time>
      </trkpt>
      <trkpt lat="57.489094" lon="15.536757">
        <ele>202.818</ele>
        <time>1970-01-01T01:00:00Z</time>
      </trkpt>
      <trkpt lat="57.489182" lon="15.536807">
        <ele>202.727</ele>
        <time>1970-01-01T01:00:00Z</time>
      </trkpt>
      <trkpt lat="57.489278" lon="15.536887">
        <ele>202.636</ele>
        <time>1970-01-01T01:00:00Z</time>
      </trkpt>
      <trkpt lat="57.489343" lon="15.536984">
        <ele>202.545</ele>
        <time>1970-01-01T01:00:00Z</time>
      </trkpt>
      <trkpt lat="57.489434" lon="15.537091">
        <ele>202.455</ele>
        <time>1970-01-01T01:00:00Z</time>
      </trkpt>
      <trkpt lat="57.489514" lon="15.537179">
        <ele>202.364</ele>
        <time>1970-01-01T01:00:00Z</time>
      </trkpt>
      <trkpt lat="57.48961" lon="15.537266">
        <ele>202.273</ele>
        <time>1970-01-01T01:00:00Z</time>
      </trkpt>
      <trkpt lat="57.489683" lon="15.537363">
        <ele>202.182</ele>
        <time>1970-01-01T01:00:00Z</time>
      </trkpt>
      <trkpt lat="57.489744" lon="15.537488">
        <ele>202.091</ele>
        <time>1970-01-01T01:00:00Z</time>
      </trkpt>
      <trkpt lat="57.489814" lon="15.537635">
        <ele>202</ele>
        <time>1970-01-01T01:00:00Z</time>
      </trkpt>
      <trkpt lat="57.489885" lon="15.537713">
        <ele>202.091</ele>
        <time>1970-01-01T01:00:00Z</time>
      </trkpt>
      <trkpt lat="57.489961" lon="15.537849">
        <ele>202.182</ele>
        <time>1970-01-01T01:00:00Z</time>
      </trkpt>
      <trkpt lat="57.490034" lon="15.537925">
        <ele>202.364</ele>
        <time>1970-01-01T01:00:00Z</time>
      </trkpt>
      <trkpt lat="57.490088" lon="15.538044">
        <ele>202.636</ele>
        <time>1970-01-01T01:00:00Z</time>
      </trkpt>
      <trkpt lat="57.490124" lon="15.53818">
        <ele>202.909</ele>
        <time>1970-01-01T01:00:00Z</time>
      </trkpt>
      <trkpt lat="57.49011" lon="15.538342">
        <ele>203.182</ele>
        <time>1970-01-01T01:00:00Z</time>
      </trkpt>
      <trkpt lat="57.490069" lon="15.538498">
        <ele>203.545</ele>
        <time>1970-01-01T01:00:00Z</time>
      </trkpt>
      <trkpt lat="57.490026" lon="15.538632">
        <ele>204</ele>
        <time>1970-01-01T01:00:00Z</time>
      </trkpt>
      <trkpt lat="57.489992" lon="15.538802">
        <ele>204.455</ele>
        <time>1970-01-01T01:00:00Z</time>
      </trkpt>
      <trkpt lat="57.489948" lon="15.538988">
        <ele>204.909</ele>
        <time>1970-01-01T01:00:00Z</time>
      </trkpt>
      <trkpt lat="57.489927" lon="15.539176">
        <ele>205.455</ele>
        <time>1970-01-01T01:00:00Z</time>
      </trkpt>
      <trkpt lat="57.48988" lon="15.539342">
        <ele>206</ele>
        <time>1970-01-01T01:00:00Z</time>
      </trkpt>
      <trkpt lat="57.489847" lon="15.539507">
        <ele>206.545</ele>
        <time>1970-01-01T01:00:00Z</time>
      </trkpt>
      <trkpt lat="57.489812" lon="15.539698">
        <ele>207</ele>
        <time>1970-01-01T01:00:00Z</time>
      </trkpt>
      <trkpt lat="57.48977" lon="15.539859">
        <ele>207.455</ele>
        <time>1970-01-01T01:00:00Z</time>
      </trkpt>
      <trkpt lat="57.489703" lon="15.540011">
        <ele>207.909</ele>
        <time>1970-01-01T01:00:00Z</time>
      </trkpt>
      <trkpt lat="57.489665" lon="15.540187">
        <ele>208.455</ele>
        <time>1970-01-01T01:00:00Z</time>
      </trkpt>
      <trkpt lat="57.489632" lon="15.540332">
        <ele>208.909</ele>
        <time>1970-01-01T01:00:00Z</time>
      </trkpt>
      <trkpt lat="57.489588" lon="15.540493">
        <ele>209.364</ele>
        <time>1970-01-01T01:00:00Z</time>
      </trkpt>
      <trkpt lat="57.489564" lon="15.540672">
        <ele>209.909</ele>
        <time>1970-01-01T01:00:00Z</time>
      </trkpt>
      <trkpt lat="57.489526" lon="15.540841">
        <ele>210.455</ele>
        <time>1970-01-01T01:00:00Z</time>
      </trkpt>
      <trkpt lat="57.489467" lon="15.541004">
        <ele>211</ele>
        <time>1970-01-01T01:00:00Z</time>
      </trkpt>
      <trkpt lat="57.489407" lon="15.541116">
        <ele>211.455</ele>
        <time>1970-01-01T01:00:00Z</time>
      </trkpt>
      <trkpt lat="57.489307" lon="15.541155">
        <ele>211.909</ele>
        <time>1970-01-01T01:00:00Z</time>
      </trkpt>
      <trkpt lat="57.489212" lon="15.541155">
        <ele>212.455</ele>
        <time>1970-01-01T01:00:00Z</time>
      </trkpt>
      <trkpt lat="57.489121" lon="15.541133">
        <ele>213</ele>
        <time>1970-01-01T01:00:00Z</time>
      </trkpt>
      <trkpt lat="57.489023" lon="15.541148">
        <ele>213.545</ele>
        <time>1970-01-01T01:00:00Z</time>
      </trkpt>
      <trkpt lat="57.488922" lon="15.541141">
        <ele>214.091</ele>
        <time>1970-01-01T01:00:00Z</time>
      </trkpt>
      <trkpt lat="57.488836" lon="15.541148">
        <ele>214.636</ele>
        <time>1970-01-01T01:00:00Z</time>
      </trkpt>
      <trkpt lat="57.488742" lon="15.54118">
        <ele>215.091</ele>
        <time>1970-01-01T01:00:00Z</time>
      </trkpt>
      <trkpt lat="57.488637" lon="15.541191">
        <ele>215.455</ele>
        <time>1970-01-01T01:00:00Z</time>
      </trkpt>
      <trkpt lat="57.488532" lon="15.54118">
        <ele>215.818</ele>
        <time>1970-01-01T01:00:00Z</time>
      </trkpt>
      <trkpt lat="57.488442" lon="15.541189">
        <ele>216.091</ele>
        <time>1970-01-01T01:00:00Z</time>
      </trkpt>
      <trkpt lat="57.488359" lon="15.541208">
        <ele>216.273</ele>
        <time>1970-01-01T01:00:00Z</time>
      </trkpt>
      <trkpt lat="57.488277" lon="15.541222">
        <ele>216.364</ele>
        <time>1970-01-01T01:00:00Z</time>
      </trkpt>
      <trkpt lat="57.488195" lon="15.541245">
        <ele>216.364</ele>
        <time>1970-01-01T01:00:00Z</time>
      </trkpt>
      <trkpt lat="57.488096" lon="15.541275">
        <ele>216.182</ele>
        <time>1970-01-01T01:00:00Z</time>
      </trkpt>
      <trkpt lat="57.488007" lon="15.541303">
        <ele>215.909</ele>
        <time>1970-01-01T01:00:00Z</time>
      </trkpt>
      <trkpt lat="57.487924" lon="15.541317">
        <ele>215.455</ele>
        <time>1970-01-01T01:00:00Z</time>
      </trkpt>
      <trkpt lat="57.487826" lon="15.54138">
        <ele>214.909</ele>
        <time>1970-01-01T01:00:00Z</time>
      </trkpt>
      <trkpt lat="57.487735" lon="15.541461">
        <ele>214.273</ele>
        <time>1970-01-01T01:00:00Z</time>
      </trkpt>
      <trkpt lat="57.487649" lon="15.541578">
        <ele>213.545</ele>
        <time>1970-01-01T01:00:00Z</time>
      </trkpt>
      <trkpt lat="57.487558" lon="15.541657">
        <ele>212.727</ele>
        <time>1970-01-01T01:00:00Z</time>
      </trkpt>
      <trkpt lat="57.487479" lon="15.5417">
        <ele>211.909</ele>
        <time>1970-01-01T01:00:00Z</time>
      </trkpt>
      <trkpt lat="57.487403" lon="15.541791">
        <ele>211.182</ele>
        <time>1970-01-01T01:00:00Z</time>
      </trkpt>
      <trkpt lat="57.487334" lon="15.541916">
        <ele>210.545</ele>
        <time>1970-01-01T01:00:00Z</time>
      </trkpt>
      <trkpt lat="57.487265" lon="15.541997">
        <ele>209.909</ele>
        <time>1970-01-01T01:00:00Z</time>
      </trkpt>
      <trkpt lat="57.487191" lon="15.542099">
        <ele>209.364</ele>
        <time>1970-01-01T01:00:00Z</time>
      </trkpt>
      <trkpt lat="57.487141" lon="15.542219">
        <ele>208.909</ele>
        <time>1970-01-01T01:00:00Z</time>
      </trkpt>
      <trkpt lat="57.487108" lon="15.542371">
        <ele>208.545</ele>
        <time>1970-01-01T01:00:00Z</time>
      </trkpt>
      <trkpt lat="57.48709" lon="15.542541">
        <ele>208.273</ele>
        <time>1970-01-01T01:00:00Z</time>
      </trkpt>
      <trkpt lat="57.487098" lon="15.542692">
        <ele>208.091</ele>
        <time>1970-01-01T01:00:00Z</time>
      </trkpt>
      <trkpt lat="57.48706" lon="15.542832">
        <ele>208</ele>
        <time>1970-01-01T01:00:00Z</time>
      </trkpt>
      <trkpt lat="57.487028" lon="15.542982">
        <ele>208.091</ele>
        <time>1970-01-01T01:00:00Z</time>
      </trkpt>
      <trkpt lat="57.486983" lon="15.543115">
        <ele>208.182</ele>
        <time>1970-01-01T01:00:00Z</time>
      </trkpt>
      <trkpt lat="57.486939" lon="15.543256">
        <ele>208.273</ele>
        <time>1970-01-01T01:00:00Z</time>
      </trkpt>
      <trkpt lat="57.486902" lon="15.543398">
        <ele>208.273</ele>
        <time>1970-01-01T01:00:00Z</time>
      </trkpt>
      <trkpt lat="57.486869" lon="15.54354">
        <ele>208.364</ele>
        <time>1970-01-01T01:00:00Z</time>
      </trkpt>
      <trkpt lat="57.486838" lon="15.543734">
        <ele>208.455</ele>
        <time>1970-01-01T01:00:00Z</time>
      </trkpt>
      <trkpt lat="57.486795" lon="15.543891">
        <ele>208.545</ele>
        <time>1970-01-01T01:00:00Z</time>
      </trkpt>
      <trkpt lat="57.486758" lon="15.544045">
        <ele>208.636</ele>
        <time>1970-01-01T01:00:00Z</time>
      </trkpt>
      <trkpt lat="57.486721" lon="15.544209">
        <ele>208.818</ele>
        <time>1970-01-01T01:00:00Z</time>
      </trkpt>
      <trkpt lat="57.486709" lon="15.54439">
        <ele>209</ele>
        <time>1970-01-01T01:00:00Z</time>
      </trkpt>
      <trkpt lat="57.486681" lon="15.544566">
        <ele>209.182</ele>
        <time>1970-01-01T01:00:00Z</time>
      </trkpt>
      <trkpt lat="57.486627" lon="15.54475">
        <ele>209.364</ele>
        <time>1970-01-01T01:00:00Z</time>
      </trkpt>
      <trkpt lat="57.486601" lon="15.544899">
        <ele>209.545</ele>
        <time>1970-01-01T01:00:00Z</time>
      </trkpt>
      <trkpt lat="57.486575" lon="15.545042">
        <ele>209.727</ele>
        <time>1970-01-01T01:00:00Z</time>
      </trkpt>
      <trkpt lat="57.486542" lon="15.545213">
        <ele>210</ele>
        <time>1970-01-01T01:00:00Z</time>
      </trkpt>
      <trkpt lat="57.486523" lon="15.545405">
        <ele>210.182</ele>
        <time>1970-01-01T01:00:00Z</time>
      </trkpt>
      <trkpt lat="57.486505" lon="15.545553">
        <ele>210.364</ele>
        <time>1970-01-01T01:00:00Z</time>
      </trkpt>
      <trkpt lat="57.486475" lon="15.54574">
        <ele>210.455</ele>
        <time>1970-01-01T01:00:00Z</time>
      </trkpt>
      <trkpt lat="57.486425" lon="15.545888">
        <ele>210.636</ele>
        <time>1970-01-01T01:00:00Z</time>
      </trkpt>
      <trkpt lat="57.486371" lon="15.546044">
        <ele>210.727</ele>
        <time>1970-01-01T01:00:00Z</time>
      </trkpt>
      <trkpt lat="57.486337" lon="15.546181">
        <ele>210.818</ele>
        <time>1970-01-01T01:00:00Z</time>
      </trkpt>
      <trkpt lat="57.486265" lon="15.54632">
        <ele>210.909</ele>
        <time>1970-01-01T01:00:00Z</time>
      </trkpt>
      <trkpt lat="57.486192" lon="15.54641">
        <ele>210.909</ele>
        <time>1970-01-01T01:00:00Z</time>
      </trkpt>
      <trkpt lat="57.486121" lon="15.546542">
        <ele>210.909</ele>
        <time>1970-01-01T01:00:00Z</time>
      </trkpt>
      <trkpt lat="57.486045" lon="15.546672">
        <ele>210.909</ele>
        <time>1970-01-01T01:00:00Z</time>
      </trkpt>
      <trkpt lat="57.485954" lon="15.546694">
        <ele>210.909</ele>
        <time>1970-01-01T01:00:00Z</time>
      </trkpt>
      <trkpt lat="57.485904" lon="15.546813">
        <ele>210.909</ele>
        <time>1970-01-01T01:00:00Z</time>
      </trkpt>
      <trkpt lat="57.485831" lon="15.546968">
        <ele>210.818</ele>
        <time>1970-01-01T01:00:00Z</time>
      </trkpt>
      <trkpt lat="57.485774" lon="15.547106">
        <ele>210.818</ele>
        <time>1970-01-01T01:00:00Z</time>
      </trkpt>
      <trkpt lat="57.485754" lon="15.547264">
        <ele>210.818</ele>
        <time>1970-01-01T01:00:00Z</time>
      </trkpt>
      <trkpt lat="57.485714" lon="15.547446">
        <ele>210.818</ele>
        <time>1970-01-01T01:00:00Z</time>
      </trkpt>
      <trkpt lat="57.485702" lon="15.547636">
        <ele>210.818</ele>
        <time>1970-01-01T01:00:00Z</time>
      </trkpt>
      <trkpt lat="57.485719" lon="15.547832">
        <ele>210.818</ele>
        <time>1970-01-01T01:00:00Z</time>
      </trkpt>
      <trkpt lat="57.485731" lon="15.548011">
        <ele>210.909</ele>
        <time>1970-01-01T01:00:00Z</time>
      </trkpt>
      <trkpt lat="57.485732" lon="15.548166">
        <ele>211</ele>
        <time>1970-01-01T01:00:00Z</time>
      </trkpt>
      <trkpt lat="57.485738" lon="15.54836">
        <ele>211.091</ele>
        <time>1970-01-01T01:00:00Z</time>
      </trkpt>
      <trkpt lat="57.485722" lon="15.548513">
        <ele>211.273</ele>
        <time>1970-01-01T01:00:00Z</time>
      </trkpt>
      <trkpt lat="57.485665" lon="15.548644">
        <ele>211.455</ele>
        <time>1970-01-01T01:00:00Z</time>
      </trkpt>
      <trkpt lat="57.485591" lon="15.548771">
        <ele>211.727</ele>
        <time>1970-01-01T01:00:00Z</time>
      </trkpt>
      <trkpt lat="57.485527" lon="15.548934">
        <ele>212</ele>
        <time>1970-01-01T01:00:00Z</time>
      </trkpt>
      <trkpt lat="57.485463" lon="15.549072">
        <ele>212.273</ele>
        <time>1970-01-01T01:00:00Z</time>
      </trkpt>
      <trkpt lat="57.485403" lon="15.54919">
        <ele>212.636</ele>
        <time>1970-01-01T01:00:00Z</time>
      </trkpt>
      <trkpt lat="57.485345" lon="15.549301">
        <ele>213</ele>
        <time>1970-01-01T01:00:00Z</time>
      </trkpt>
      <trkpt lat="57.485289" lon="15.549436">
        <ele>213.455</ele>
        <time>1970-01-01T01:00:00Z</time>
      </trkpt>
      <trkpt lat="57.485215" lon="15.549536">
        <ele>213.909</ele>
        <time>1970-01-01T01:00:00Z</time>
      </trkpt>
      <trkpt lat="57.485136" lon="15.549616">
        <ele>214.364</ele>
        <time>1970-01-01T01:00:00Z</time>
      </trkpt>
      <trkpt lat="57.485032" lon="15.549687">
        <ele>214.909</ele>
        <time>1970-01-01T01:00:00Z</time>
      </trkpt>
      <trkpt lat="57.484931" lon="15.549771">
        <ele>215.364</ele>
        <time>1970-01-01T01:00:00Z</time>
      </trkpt>
      <trkpt lat="57.484831" lon="15.549878">
        <ele>215.818</ele>
        <time>1970-01-01T01:00:00Z</time>
      </trkpt>
      <trkpt lat="57.484752" lon="15.549935">
        <ele>216.273</ele>
        <time>1970-01-01T01:00:00Z</time>
      </trkpt>
      <trkpt lat="57.484667" lon="15.550009">
        <ele>216.818</ele>
        <time>1970-01-01T01:00:00Z</time>
      </trkpt>
      <trkpt lat="57.484573" lon="15.550039">
        <ele>217.273</ele>
        <time>1970-01-01T01:00:00Z</time>
      </trkpt>
      <trkpt lat="57.484473" lon="15.550063">
        <ele>217.5</ele>
        <time>1970-01-01T01:00:00Z</time>
      </trkpt>
      <trkpt lat="57.484392" lon="15.550104">
        <ele>217.778</ele>
        <time>1970-01-01T01:00:00Z</time>
      </trkpt>
      <trkpt lat="57.484289" lon="15.550165">
        <ele>218</ele>
        <time>1970-01-01T01:00:00Z</time>
      </trkpt>
      <trkpt lat="57.484201" lon="15.550237">
        <ele>218.143</ele>
        <time>1970-01-01T01:00:00Z</time>
      </trkpt>
      <trkpt lat="57.484171" lon="15.550236">
        <ele>218.333</ele>
        <time>1970-01-01T01:00:00Z</time>
      </trkpt>
    </trkseg>
  </trk>
</gpx>